     2.10           OBSERVATION DATA    G (GPS)             RINEX VERSION / TYPE
teqc 2002Mar14 SOPAC 20050725 22:56:42UTC                   PGM / RUN BY / DATE
Linux 2.0.36|Pentium II|gcc -static|Linux|486/DX+           COMMENT
BIT 2 OF LLI FLAGS DATA COLLECTED UNDER A/S CONDITION       COMMENT
HPGN CA 10 12                                               MARKER NAME
1012                                                        MARKER NUMBER
Dick Roper                                                  OBSERVER / AGENCY
0220158629 TRIMBLE 4700 1.30                                REC # / TYPE / VERS
0220159582 TRM33429.00+GP NONE                              ANT # / TYPE
 -2508641.0000 -4314311.0000  3962053.0000                  APPROX POSITION XYZ
        2.0000        0.0000        0.0000                  ANTENNA: DELTA H/E/N
     1     1                                                WAVELENGTH FACT L1/2
     6    L1    L2    C1    P2    P1    D1                  # / TYPES OF OBSERV
    15.0000                                                 INTERVAL
Northern California Height Modernization 2004               COMMENT
                                                            COMMENT
SOPAC - Scripps Orbit and Permanent Array Center            COMMENT
IGPP - Institute of Geophysics and Planetary Physics        COMMENT
SIO - Scripps Institution of Oceanography                   COMMENT
UCSD - University of California, San Diego                  COMMENT
                                                            COMMENT
email: archive@gpsmail.ucsd.edu                             COMMENT
ftp://garner.ucsd.edu                                       COMMENT
http://sopac.ucsd.edu                                       COMMENT
                                                            COMMENT
                                                            COMMENT
Approximate Lat, Lon : 38.633, -120.177                     COMMENT
                                                            COMMENT
SNR is mapped to RINEX snr flag value [1-9]                 COMMENT
L1: 3 -> 1; 8 -> 5; 40 -> 9                                 COMMENT
L2: 1 -> 1; 5 -> 5; 60 -> 9                                 COMMENT
  2004     9    17    20    45   15.0000000     GPS         TIME OF FIRST OBS
                                                            END OF HEADER
 04  9 17 20 45 15.0000000  0  6G 3G 8G13G19G23G27
      5777.20659     -1986.75957  22797909.5944   22797908.6644
      -498.5944
    -16956.79159    -10684.39257  22519535.0474   22519532.4264
      1468.0164
     11961.32959       839.80358  20184215.1484   20184211.1524
     -1039.7504
    -16785.17859    -10613.43857  23355880.4304   23355877.3284
      1452.0004
     39725.72759     11045.67858  21701751.8594   21701746.9344
     -3385.6724
     -3369.52559     -5659.10858  21346134.3284   21346131.1334
       306.8594
 04  9 17 20 45 30.0000000  0  6G 3G 8G13G19G23G27
     13303.69549      3878.06447  22799341.7814   22799340.7704
      -505.5314
    -38980.65649    -27845.82347  22515343.2274   22515341.2624
      1467.8594
     27593.19449     13020.46348  20187189.9924   20187185.5554
     -1045.1564
    -38551.38349    -27574.06547  23351738.0004   23351735.7854
      1449.5784
     90531.47449     50634.53548  21711419.5704   21711414.9104
     -3389.0624
     -7976.33849     -9248.84048  21345257.9534   21345254.7974
       306.8284
 04  9 17 20 45 45.0000000  0  6G 3G 8G13G19G23G27
     20957.54749      9842.13047  22800798.4304   22800797.0554
      -515.4224
    -60978.23649    -44986.76547  22511157.7114   22511155.5004
      1464.7034
     43330.38949     25283.20948  20190184.5784   20190180.2504
     -1053.5474
    -60256.60449    -44487.19347  23347606.9064   23347605.4304
      1444.0784
    141413.14149     90282.54848  21721101.9614   21721097.1914
     -3395.5474
    -12557.37749    -12818.47048  21344385.7814   21344382.5664
       303.6094
 04  9 17 20 46  0.0000000  0  6G 3G 8G13G19G23G27
     28775.49449     15934.06847  22802286.1254   22802285.0744
      -527.3284
    -82912.80249    -62078.63147  22506984.0234   22506981.1994
      1459.5634
     59209.75949     37656.74348  20193206.1804   20193202.0704
     -1064.0944
    -81863.76449    -61323.89147  23343496.0394   23343493.1454
      1436.5314
    192407.18449    130018.13748  21730806.2274   21730801.3984
     -3403.9534
    -17075.81549    -16339.32348  21343525.9534   21343523.1764
       298.4534
 04  9 17 20 46 15.0000000  0  6G 3G 8G13G19G23G27
     36782.70849     22173.45347  22803809.8834   22803808.4344
      -540.6254
   -104759.20749    -79101.77247  22502826.5394   22502824.1294
      1452.9844
     75256.27449     50160.51148  20196259.7974   20196255.5004
     -1075.9064
   -103347.66049    -78064.57347  23339408.2734   23339405.2034
      1427.6414
    243538.41349    169860.61648  21740536.1804   21740531.5004
     -3413.8594
    -21506.74749    -19791.98548  21342682.8524   21342679.9734
       291.8914
 04  9 17 20 46 30.0000000  0  6G 3G 8G13G19G23G27
     44995.58849     28573.13747  22805373.1414   22805371.9104
      -554.9374
   -126501.17549    -96043.55147  22498689.2034   22498687.0984
      1445.5634
     91486.26749     62807.26348  20199348.2734   20199344.0744
     -1088.6414
   -124691.58749    -94696.17847  23335345.9614   23335342.9454
      1417.7664
    294822.97849    209822.59348  21750295.0944   21750290.0394
     -3424.6094
    -25833.90149    -23163.77848  21341859.5004   21341856.6094
       284.5164
 04  9 17 20 46 45.0000000  0  6G 3G 8G13G19G23G27
     53425.56849     35141.96247  22806977.3364   22806975.9734
      -569.4844
   -148127.26849   -112895.03247  22494573.8674   22494571.7504
      1437.6094
    107911.27849     75605.96548  20202473.8134   20202469.4694
     -1101.7974
   -145883.82149   -111209.60947  23331313.2894   23331309.7704
      1407.4534
    346272.02349    249912.71748  21760085.4534   21760080.8054
     -3435.7194
    -30046.06949    -26445.98248  21341058.1564   21341054.8054
       276.7194
 04  9 17 20 47  0.0000000  0  6G 3G 8G13G19G23G27
     62081.86849     41887.17847  22808623.8134   22808622.7624
      -584.6254
   -169628.34649   -129649.08947  22490481.9614   22490479.8244
      1429.2664
    124540.59349     88563.87648  20205638.1954   20205634.0824
     -1115.3914
   -166914.95849   -127597.48647  23327310.3284   23327308.1844
      1396.7344
    397894.63349    290138.09948  21769909.1024   21769904.1954
     -3447.2974
    -34134.04749    -29631.39748  21340280.0784   21340276.7384
       268.3914
 04  9 17 20 47 15.0000000  0  6G 3G 8G13G19G23G27
     70969.77949     48812.83247  22810315.6094   22810314.4534
      -600.0624
   -190999.52849   -146301.92747  22486415.3594   22486413.6454
      1420.6094
    141379.38949    101685.01048  20208842.5474   20208838.4344
     -1129.4064
   -187779.45449   -143855.51447  23323339.9384   23323338.1764
      1385.5314
    449695.89449    330502.68548  21779766.6724   21779761.6484
     -3459.2194
    -38092.64149    -32716.00648  21339527.0634   21339524.0354
       259.7814
 04  9 17 20 47 30.0000000  0  6G 3G 8G13G19G23G27
     80090.59249     55919.98947  22812050.9224   22812049.6094
      -615.9224
   -212239.65149   -162852.65247  22482373.4454   22482371.1374
      1411.5164
    158428.85149    114970.30448  20212086.9304   20212083.2154
     -1143.7194
   -208475.83749   -159982.52347  23319402.5944   23319400.2974
      1374.0474
    501676.72249    371007.19548  21789658.3984   21789653.5234
     -3471.4534
    -41920.88649    -35699.04548  21338798.2814   21338795.2974
       250.7664
 04  9 17 20 47 45.0000000  0  6G 3G 8G13G19G23G27
     89442.82949     63207.46647  22813831.2734   22813829.3204
      -631.2664
   -233350.19249   -179302.40047  22478355.9224   22478353.6884
      1402.9844
    175687.53449    128418.62848  20215371.1644   20215367.1094
     -1157.6414
   -229005.27749   -175979.44447  23315495.8204   23315493.9414
      1362.9224
    553835.45149    411650.34848  21799583.6564   21799578.5904
     -3483.3754
    -45620.20349    -38581.61348  21338094.3284   21338091.3554
       242.1884
 04  9 17 20 48  0.0000000  0  6G 3G 8G13G19G23G27
     99028.97149     70677.21847  22815654.7194   22815653.8594
      -646.7974
   -254328.61149   -195649.18747  22474364.1644   22474362.1724
      1394.3134
    193157.83549    142031.85448  20218695.7974   20218691.3834
     -1171.5944
   -249364.99449   -191844.12747  23311622.1564   23311618.9654
      1351.7344
    606174.43449    452433.94348  21809543.7664   21809538.4884
     -3495.1564
    -49188.23449    -41361.87748  21337414.8134   21337412.0314
       233.6884
 04  9 17 20 48 15.0000000  0  6G 3G 8G13G19G23G27
    108843.70849     78325.10847  22817522.4774   22817521.4414
      -662.0164
   -275180.03149   -211897.02947  22470396.4694   22470394.0554
      1385.7344
    210834.48449    155805.85748  20222059.1804   20222055.3164
     -1185.4374
   -269560.15649   -207580.59947  23307778.9694   23307776.3874
      1340.7344
    658688.01249    493353.57848  21819536.6564   21819531.6804
     -3506.8444
    -52630.48349    -44044.14348  21336760.4384   21336757.1374
       225.2504
 04  9 17 20 48 30.0000000  0  6G 3G 8G13G19G23G27
    118883.84449     86148.62247  22819433.7504   22819431.6054
      -676.5944
   -295908.27549   -228048.87747  22466451.7894   22466450.0664
      1378.0314
    228714.36649    169738.23248  20225461.9064   20225458.0044
     -1198.4844
   -289593.69449   -223191.11247  23303965.7274   23303963.3524
      1330.4694
    711372.69249    534406.55148  21829561.9614   21829557.2854
     -3517.7194
    -55950.34349    -46631.02448  21336128.6804   21336125.7304
       217.5474
 04  9 17 20 48 45.0000000  0  6G 3G 8G13G19G23G27
    129147.24349     94146.09447  22821386.4224   22821384.7034
      -691.5474
   -316515.38049   -244106.34447  22462530.6024   22462528.1414
      1369.8754
    246795.29249    183827.27048  20228902.5164   20228898.7274
     -1211.9374
   -309467.52449   -238677.19247  23300184.7894   23300182.3054
      1319.7034
    764226.24549    575591.11448  21839619.4844   21839615.1414
     -3529.0474
    -59149.95249    -49124.21048  21335519.7114   21335516.5044
       209.4064
 04  9 17 20 49  0.0000000  0  6G 3G 8G13G19G23G27
    139630.76749    102315.09747  22823381.5084   22823379.6174
      -706.1874
   -337004.47549   -260071.84947  22458631.7344   22458628.9454
      1361.9844
    265073.95949    198070.39148  20232381.0704   20232376.8404
     -1225.2194
   -329184.55749   -254041.08947  23296431.6334   23296428.9064
      1309.2664
    817245.18249    616904.53148  21849709.2424   21849704.1374
     -3540.0624
    -62232.49049    -51526.18048  21334933.0394   21334929.9104
       201.5944
 04  9 17 20 49 15.0000000  0  6G 3G 8G13G19G23G27
    150331.76649    110653.54947  22825418.0314   22825416.3014
      -720.2814
   -357378.31949   -275947.54247  22454754.2664   22454751.7584
      1354.7504
    283547.97049    212465.72348  20235896.6484   20235892.1484
     -1237.7814
   -348746.94049   -269284.49147  23292709.2194   23292706.2114
      1299.2974
    870426.68749    658344.64748  21859828.8984   21859824.2274
     -3550.5784
    -65200.70649    -53839.05948  21334368.2194   21334364.6294
       194.3754
 04  9 17 20 49 30.0000000  0  6G 3G 8G13G19G23G27
    161245.35349    119157.68147  22827494.2034   22827493.2664
      -734.2974
   -377641.99249   -291737.38447  22450898.2664   22450895.7464
      1347.5474
    302212.30749    227009.36548  20239447.9454   20239443.7664
     -1250.4224
   -368159.40149   -284411.07847  23289015.7114   23289012.5044
      1289.4384
    923765.63649    699907.42848  21869979.4534   21869974.2384
     -3560.8444
    -68059.67549    -56066.81148  21333824.1024   21333821.3794
       187.2344
 04  9 17 20 49 45.0000000  0  6G 3G 8G13G19G23G27
    172368.47449    127825.09047  22829611.1094   22829610.1024
      -748.4224
   -397798.56949   -307443.78447  22447062.5084   22447060.1724
      1340.3284
    321063.89149    241698.90948  20243035.2734   20243031.3874
     -1262.9844
   -387424.93749   -299423.13247  23285348.4534   23285346.7974
      1279.4844
    977258.70449    741590.31048  21880158.6564   21880153.6844
     -3571.2664
    -70812.46049    -58211.82848  21333300.4924   21333296.8364
       180.0314
 04  9 17 20 50  0.0000000  0  6G 3G 8G13G19G23G27
    183697.04149    136652.56747  22831766.4224   22831765.0434
      -761.9224
   -417852.04649   -323069.84047  22443246.5474   22443244.1414
      1333.7194
    340098.60249    256531.15148  20246657.6174   20246653.3554
     -1274.9534
   -406547.26549   -314323.61747  23281709.8674   23281708.1564
      1270.1094
   1030901.45749    783389.84348  21890366.6024   21890361.8134
     -3580.9534
    -73463.40749    -60277.48248  21332795.7894   21332792.7934
       173.5164
 04  9 17 20 50 15.0000000  0  6G 3G 8G13G19G23G27
    195226.77249    145636.80147  22833961.0704   22833959.4064
      -775.2194
   -437806.84549   -338619.00647  22439449.4534   22439447.1334
      1327.1564
    359312.17449    271502.76748  20250313.7344   20250309.4694
     -1286.7344
   -425530.30649   -329115.55347  23278097.8674   23278096.1954
      1261.0004
   1084689.54949    825302.61148  21900602.2344   21900597.7304
     -3590.6254
    -76016.71549    -62267.06348  21332309.7274   21332307.1914
       167.1254
 04  9 17 20 50 30.0000000  0  6G 3G 8G13G19G23G27
    206953.62349    154774.62647  22836192.5634   22836190.8874
      -788.3594
   -457667.11049   -354094.50447  22435670.1334   22435668.1174
      1320.9534
    378700.58049    286610.61248  20254003.2664   20253999.1994
     -1298.3284
   -444377.89949   -343801.93547  23274511.8054   23274509.5124
      1252.0004
   1138618.59849    867325.22148  21910864.7034   21910859.8014
     -3599.9534
    -78476.65149    -64183.87848  21331841.5864   21331838.8014
       160.9224
 04  9 17 20 50 45.0000000  0  6G 3G 8G13G19G23G27
    218879.27849    164067.36447  22838461.5394   22838460.0784
      -801.5784
   -477431.37349   -369495.20147  22431909.3284   22431907.4774
      1314.6094
    398265.42749    301855.95848  20257726.3984   20257722.1054
     -1310.0004
   -463088.14049   -358381.31147  23270951.1254   23270948.4804
      1242.9224
   1192690.09149    909458.83248  21921154.2664   21921149.0704
     -3609.2504
    -80841.70049    -66026.76048  21331391.5164   21331388.7504
       154.7194
 04  9 17 20 51  0.0000000  0  6G 3G 8G13G19G23G27
    230999.80249    173511.95047  22840768.2114   22840766.6294
      -814.5784
   -497103.44949   -384824.05547  22428165.7194   22428163.8284
      1308.3444
    418002.85749    317235.76748  20261482.0784   20261478.1454
     -1321.5624
   -481664.65649   -372856.46847  23267415.5474   23267413.3054
      1233.8754
   1246899.93849    951700.23748  21931469.8134   21931464.2114
     -3618.6414
    -83115.62749    -67798.64148  21330958.9924   21330956.0124
       148.5314
 04  9 17 20 51 15.0000000  0  6G 3G 8G13G19G23G27
    243312.72249    183106.45147  22843111.3284   22843109.7114
      -826.9844
   -516685.87249   -400083.06247  22424438.8594   22424437.2344
      1302.7664
    437910.47549    332748.20648  20265270.5234   20265266.1724
     -1332.5944
   -500109.64049   -387229.14047  23263905.9534   23263903.5084
      1225.5474
   1301245.33549    994047.26948  21941810.9924   21941806.3244
     -3627.2344
    -85301.22049    -69501.68448  21330543.0634   21330539.7154
       143.0634
 04  9 17 20 51 30.0000000  0  6G 3G 8G13G19G23G27
    255813.54749    192847.38147  22845489.8594   22845488.4964
      -839.5624
   -536183.28549   -415275.81547  22420728.7034   22420727.1454
      1297.0784
    457983.59649    348389.59748  20269090.4224   20269086.2464
     -1343.6094
   -518427.35349   -401502.64547  23260419.9694   23260416.9414
      1217.0164
   1355721.53049   1036496.22248  21952177.9924   21952173.0004
     -3636.0314
    -87403.03149    -71139.44848  21330143.1334   21330139.8244
       137.4224
 04  9 17 20 51 45.0000000  0  6G 3G 8G13G19G23G27
    268500.84549    202733.59547  22847904.4774   22847903.0234
      -851.7194
   -555597.23749   -430403.54347  22417034.3834   22417032.0744
      1291.7344
    478220.89749    364158.92448  20272941.4384   20272937.2704
     -1354.3124
   -536618.95149   -415677.83347  23256958.0704   23256955.9654
      1208.9844
   1410327.11149   1079045.99448  21962568.8594   21962564.1684
     -3644.3914
    -89422.45349    -72713.00848  21329758.5784   21329755.3164
       132.1884
 04  9 17 20 52  0.0000000  0  6G 3G 8G13G19G23G27
    281370.16649    212761.65747  22850353.3754   22850351.5394
      -864.0164
   -574932.13349   -445469.65947  22413355.2894   22413353.0004
      1286.3594
    498617.87049    380052.67348  20276822.6414   20276818.4304
     -1365.0474
   -554688.76449   -429758.14147  23253519.2584   23253516.7544
      1200.7344
   1465057.20849   1121692.80048  21972983.6414   21972978.9964
     -3652.8124
    -91364.13649    -74225.99248  21329389.1094   21329386.1334
       126.9064
 04  9 17 20 52 15.0000000  0  6G 3G 8G13G19G23G27
    294420.98649    222931.14147  22852836.6564   22852835.4104
      -875.8594
   -594188.46349   -460474.56247  22409690.7584   22409688.0204
      1281.4534
    519174.12649    396070.53848  20280734.8754   20280730.2074
     -1375.4694
   -572636.76249   -443743.52247  23250104.7814   23250101.3204
      1192.7344
   1519911.17349   1164436.10948  21983422.3364   21983417.8634
     -3660.7194
    -93228.61349    -75678.82648  21329034.5314   21329031.3094
       122.0004
 04  9 17 20 52 30.0000000  0  6G 3G 8G13G19G23G27
    307650.52349    233239.89347  22855354.3204   22855352.8594
      -887.8594
   -613369.23949   -475420.59147  22406040.8524   22406037.9064
      1276.3444
    539886.80349    412210.29248  20284675.9774   20284672.0314
     -1386.0314
   -590465.67149   -457636.11547  23246712.2194   23246709.1054
      1184.6094
   1574885.78849   1207273.45348  21993883.7194   21993878.9144
     -3669.0164
    -95018.82149    -77073.77348  21328693.6094   21328690.9924
       116.8914
 04  9 17 20 52 45.0000000  0  6G 3G 8G13G19G23G27
    321060.88949    243689.53747  22857905.9144   22857903.6994
      -900.0944
   -632472.31249   -490306.08447  22402405.4384   22402402.5124
      1270.9694
    560757.84349    428473.43348  20288647.7274   20288643.5044
     -1396.6874
   -608173.14649   -471434.08647  23243341.8834   23243338.9304
      1176.5164
   1629983.03649   1250206.33348  22004368.0554   22004363.5944
     -3677.1564
    -96732.75749    -78409.30348  21328367.3674   21328364.3244
       111.7664
 04  9 17 20 53  0.0000000  0  6G 3G 8G13G19G23G27
    334649.57649    254278.12847  22860492.0004   22860489.8014
      -911.7034
   -651500.39249   -505133.13247  22398784.7664   22398782.4884
      1266.2194
    581784.82549    444858.10248  20292648.9144   20292644.8524
     -1406.8284
   -625761.28749   -485139.05947  23239995.2664   23239992.1994
      1168.7344
   1685200.28049   1293232.73148  22014875.5784   22014870.6294
     -3684.9844
    -98372.95149    -79687.35948  21328055.3834   21328051.9884
       107.1254
 04  9 17 20 53 15.0000000  0  6G 3G 8G13G19G23G27
    348411.81749    265001.98147  22863111.1094   22863108.8984
      -923.4224
   -670458.30349   -519905.51247  22395176.8594   22395174.2304
      1261.3754
    602963.04949    461360.61448  20296678.9224   20296674.7894
     -1417.0164
   -643234.65749   -498754.61447  23236669.7664   23236666.5234
      1160.9844
   1740532.41649   1336348.64548  22025404.9774   22025400.1644
     -3692.7974
    -99944.34249    -80911.81748  21327756.4384   21327753.3834
       102.3284
 04  9 17 20 53 30.0000000  0  6G 3G 8G13G19G23G27
    362350.32149    275863.14847  22865763.5474   22865760.7154
      -935.1414
   -689343.14649   -534620.93947  22391582.9694   22391580.8324
      1256.5944
    624295.23449    477983.09948  20300738.0784   20300734.2974
     -1427.2974
   -660590.15449   -512278.24747  23233366.3444   23233364.7344
      1153.0784
   1795982.01349   1379556.09948  22035956.5004   22035951.6254
     -3700.5314
   -101444.18649    -82080.50048  21327470.9384   21327468.3364
        97.5784
 04  9 17 20 53 45.0000000  0  6G 3G 8G13G19G23G27
    376464.26649    286861.03147  22868449.5864   22868447.6134
      -946.3914
   -708155.81049   -549280.14347  22388003.8134   22388000.7194
      1252.1094
    645780.42749    494724.79648  20304826.7974   20304822.5594
     -1437.0314
   -677828.50849   -525710.64247  23230086.8674   23230083.9804
      1145.7814
   1851547.96049   1422854.20248  22046530.4064   22046525.4184
     -3707.8914
   -102873.44549    -83194.21448  21327199.1954   21327195.8444
        93.2974
 04  9 17 20 54  0.0000000  0  6G 3G 8G13G19G23G27
    390749.44549    297992.35747  22871167.3134   22871165.6564
      -958.0314
   -726900.70449   -563886.52747  22384436.4064   22384434.1524
      1247.3134
    667414.53349    511582.55948  20308943.6884   20308939.6214
     -1447.3594
   -694953.49349   -539054.71547  23226828.6724   23226823.8134
      1137.8134
   1907225.97349   1466239.64448  22057125.7034   22057120.8834
     -3715.6564
   -104236.36449    -84256.20748  21326939.6484   21326936.7504
        88.5784
 04  9 17 20 54 15.0000000  0  6G 3G 8G13G19G23G27
    405204.53449    309256.09447  22873918.4694   22873916.0554
      -969.1254
   -745579.29249   -578441.24647  22380881.6804   22380878.8284
      1243.2504
    689196.22449    528555.29548  20313088.7584   20313085.1484
     -1456.8914
   -711966.22649   -552311.33647  23223590.7664   23223586.2664
      1130.6254
   1963014.46549   1509711.15648  22067742.6954   22067737.6054
     -3722.7504
   -105534.33849    -85267.61348  21326692.8754   21326689.7304
        84.5634
 04  9 17 20 54 30.0000000  0  6G 3G 8G13G19G23G27
    419827.23549    320650.39647  22876700.5084   22876698.5704
      -980.5004
   -764193.97049   -592946.15747  22377339.5314   22377336.9774
      1238.7194
    711123.10549    545641.18348  20317261.1644   20317257.3404
     -1466.7194
   -728868.85349   -565482.13847  23220374.2344   23220370.6484
      1123.1094
   2018910.76749   1553266.67348  22078378.7734   22078374.1294
     -3730.0784
   -106769.77849    -86230.28148  21326457.4224   21326454.1564
        80.2194
 04  9 17 20 54 45.0000000  0  6G 3G 8G13G19G23G27
    434618.85949    332176.35047  22879515.6334   22879513.1884
      -991.8284
   -782743.37449   -607400.21847  22373809.5704   22373807.0274
      1234.3444
    733196.58249    562841.28848  20321461.5164   20321457.3834
     -1476.5784
   -745659.82949   -578565.91547  23217178.4384   23217175.5554
      1115.5784
   2074915.92449   1596907.02648  22089035.9304   22089031.6604
     -3737.4694
   -107941.47149    -87143.28548  21326234.5634   21326231.1374
        75.9224
 04  9 17 20 55  0.0000000  0  6G 3G 8G13G19G23G27
    449577.50249    343832.43847  22882362.4774   22882359.7814
     -1002.7664
   -801229.29649   -621804.80447  22370291.9614   22370289.6134
      1230.2974
    755414.80649    580154.19648  20325689.6644   20325685.6214
     -1486.0004
   -762340.71749   -591563.93447  23214004.1024   23214001.2664
      1108.4064
   2131028.00249   1640630.69448  22099714.3284   22099709.6174
     -3744.2974
   -109051.21149    -88007.99948  21326023.5944   21326019.8594
        71.9384
 04  9 17 20 55 15.0000000  0  6G 3G 8G13G19G23G27
    464702.14649    355617.88347  22885240.1334   22885238.8204
     -1013.8124
   -819652.88249   -636160.81247  22366786.2344   22366783.5704
      1226.2814
    777776.75849    597579.08548  20329945.0234   20329940.9454
     -1495.5004
   -778912.14049   -604476.63747  23210850.4224   23210847.0824
      1101.2034
   2187245.72649   1684436.66348  22110411.8754   22110407.5984
     -3751.2504
   -110100.29049    -88825.46648  21325823.6804   21325820.4844
        67.9844
 04  9 17 20 55 30.0000000  0  6G 3G 8G13G19G23G27
    479991.54949    367531.72347  22888149.4454   22888147.3284
     -1025.0784
   -838015.50749   -650469.33847  22363291.6644   22363289.0984
      1221.8284
    800281.09449    615114.94248  20334227.3284   20334223.0084
     -1505.3284
   -795375.06349   -617304.81147  23207718.2584   23207714.7384
      1093.5784
   2243567.56349   1728323.77748  22121129.5474   22121125.3714
     -3758.5624
   -111089.88349    -89596.56148  21325635.3054   21325631.8754
        63.7664
 04  9 17 20 55 45.0000000  0  6G 3G 8G13G19G23G27
    495447.78749    379575.55647  22891091.1804   22891089.0354
     -1035.9374
   -856314.82549   -664728.51847  22359809.7584   22359806.9064
      1217.9224
    822929.93149    632763.38948  20338537.3834   20338533.1294
     -1514.7034
   -811727.09449   -630046.56847  23204606.5704   23204602.7894
      1086.4844
   2299995.39149   1772293.48948  22131867.8284   22131862.6054
     -3765.3284
   -112018.01449    -90319.76348  21325458.9694   21325455.7894
        59.9224
 04  9 17 20 56  0.0000000  0  6G 3G 8G13G19G23G27
    511067.94149    391747.11747  22894062.4064   22894061.5904
     -1046.7194
   -874553.98749   -678940.83147  22356338.4144   22356335.8954
      1213.9534
    845720.46749    650522.25348  20342874.2894   20342869.7734
     -1524.0314
   -827970.94249   -642704.02747  23201514.8914   23201511.6564
      1079.3284
   2356526.23249   1816343.46148  22142624.7194   22142620.4534
     -3772.0784
   -112887.56649    -90997.33648  21325293.4384   21325289.9534
        56.0784
 04  9 17 20 56 15.0000000  0  6G 3G 8G13G19G23G27
    526851.19849    404045.76347  22897066.5004   22897064.8284
     -1057.4534
   -892733.81749   -693106.92047  22352879.2274   22352876.5084
      1210.1724
    868651.78949    668390.81148  20347237.7664   20347233.4224
     -1533.2504
   -844107.10849   -655277.58647  23198443.9694   23198441.0274
      1072.3284
   2413159.02549   1860472.89048  22153402.0084   22153397.6024
     -3778.7664
   -113699.50449    -91630.00048  21325139.1724   21325135.8014
        52.3284
 04  9 17 20 56 30.0000000  0  6G 3G 8G13G19G23G27
    542794.52749    416469.15947  22900100.3674   22900098.6644
     -1068.1254
   -910857.30949   -707229.08947  22349430.4924   22349427.5084
      1206.4384
    891720.93149    686366.76848  20351627.7424   20351623.6684
     -1542.3914
   -860138.40649   -667769.42847  23195393.2504   23195390.0434
      1065.3594
   2469890.44849   1904679.15248  22164197.5084   22164193.1484
     -3785.2814
   -114456.87249    -92220.15448  21324994.7664   21324991.6334
        48.7814
 04  9 17 20 56 45.0000000  0  6G 3G 8G13G19G23G27
    558901.49749    429020.05947  22903165.8754   22903163.7304
     -1079.2664
   -928921.10849   -721304.76247  22345992.9924   22345990.1174
      1202.2664
    914931.40749    704452.85248  20356044.7114   20356039.9454
     -1552.0314
   -876060.97949   -680176.56947  23192363.5084   23192359.8094
      1057.9224
   2526723.67849   1948964.75348  22175012.5864   22175007.7114
     -3792.2344
   -115156.35649    -92765.19148  21324861.5704   21324858.3954
        44.6724
 04  9 17 20 57  0.0000000  0  6G 3G 8G13G19G23G27
    575170.44449    441697.17047  22906261.5314   22906259.4614
     -1090.1724
   -946926.84649   -735335.18647  22342566.8834   22342564.0474
      1198.3754
    938281.51249    722647.73148  20360488.0944   20360483.5044
     -1561.4064
   -891876.30949   -692500.13247  23189354.2274   23189350.4384
      1050.6564
   2583657.06549   1993328.40048  22185846.6564   22185842.1724
     -3799.0944
   -115799.48449    -93266.32648  21324739.1094   21324735.9384
        40.8594
 04  9 17 20 57 15.0000000  0  6G 3G 8G13G19G23G27
    591599.55349    454499.08247  22909388.0084   22909385.7384
     -1100.9224
   -964876.44949   -749321.86147  22339150.3134   22339148.3714
      1194.5164
    961769.53349    740950.09048  20364957.5944   20364953.0204
     -1570.7664
   -907585.68849   -704741.14747  23186364.1564   23186360.5704
      1043.5784
   2640688.46449   2037768.42148  22196699.8444   22196694.7894
     -3805.5944
   -116388.02149    -93724.92248  21324627.3284   21324624.2154
        37.1564
 04  9 17 20 57 30.0000000  0  6G 3G 8G13G19G23G27
    608188.97649    467425.93247  22912544.2114   22912542.5084
     -1111.2194
   -982769.75149   -763264.66547  22335745.8054   22335743.0704
      1191.1724
    985395.66149    759360.06248  20369453.4614   20369449.6524
     -1579.5474
   -923188.84149   -716899.36847  23183395.0004   23183391.5514
      1036.7814
   2697817.92349   2082284.85348  22207571.1484   22207566.8364
     -3811.8124
   -116922.07449    -94141.04848  21324525.8834   21324522.4384
        33.9224
 04  9 17 20 57 45.0000000  0  6G 3G 8G13G19G23G27
    624936.75149    480476.16347  22915731.8984   22915729.4574
     -1121.9224
  -1000608.77649   -777165.18347  22332350.8754   22332348.5634
      1187.3594
   1009157.82149    777876.03548  20373975.3204   20373970.9224
     -1588.8124
   -938687.37649   -728976.06947  23180445.5634   23180442.5084
      1029.6564
   2755043.26549   2126875.98348  22218460.5474   22218456.3164
     -3818.2664
   -117403.54449    -94516.20748  21324434.1644   21324430.5394
        30.2504
 04  9 17 20 58  0.0000000  0  6G 3G 8G13G19G23G27
    641845.47649    493651.79747  22918949.4614   22918947.4264
     -1132.6874
  -1018390.78549   -791021.28547  22328967.5704   22328964.7464
      1183.5784
   1033058.49349    796499.93348  20378523.2034   20378519.2814
     -1598.0164
   -954078.52249   -740969.09847  23177516.4614   23177513.8874
      1022.5314
   2812366.90149   2171543.70748  22229368.9304   22229364.5864
     -3824.9064
   -117829.90749    -94848.42848  21324352.6954   21324349.4144
        26.6094
 04  9 17 20 58 15.0000000  0  6G 3G 8G13G19G23G27
    658915.62849    506953.23347  22922197.2114   22922195.8984
     -1143.4064
  -1036115.26049   -804832.52847  22325594.5554   22325592.1914
      1179.7344
   1057098.41749    815232.34048  20383097.7664   20383093.5784
     -1607.3124
   -969361.43349   -752877.78747  23174608.7344   23174605.6094
      1015.2974
   2869789.07949   2216288.22748  22240296.3284   22240291.3714
     -3831.5164
   -118200.79349    -95137.42248  21324282.1334   21324278.9384
        22.8594
 04  9 17 20 58 30.0000000  0  6G 3G 8G13G19G23G27
    676143.67649    520377.71247  22925475.8594   22925474.0594
     -1153.9844
  -1053785.87749   -818601.82347  22322231.8284   22322229.3444
      1176.0474
   1081274.01849    834070.46748  20387698.4774   20387694.3324
     -1616.4374
   -984539.25649   -764704.60947  23171720.8754   23171717.4104
      1008.1724
   2927306.00149   2261106.59148  22251241.2734   22251236.0664
     -3837.8914
   -118519.62049    -95385.85348  21324221.3134   21324218.1954
        19.3444
 04  9 17 20 58 45.0000000  0  6G 3G 8G13G19G23G27
    693529.19549    533924.89447  22928784.4774   22928782.4614
     -1163.8594
  -1071403.05649   -832329.47347  22318879.6884   22318876.8364
      1173.1414
   1105585.03849    853014.12648  20392324.6644   20392320.5514
     -1624.8594
   -999612.07649   -776449.61747  23168852.2734   23168847.5944
      1001.7814
   2984917.22549   2305998.42048  22262204.5084   22262199.7894
     -3843.4374
   -118786.72849    -95593.97848  21324170.6724   21324167.2074
        16.4844
 04  9 17 20 59  0.0000000  0  6G 3G 8G13G19G23G27
    711068.24249    547591.70147  22932121.7894   22932119.6604
     -1174.7344
  -1088970.73249   -846018.55248  22315536.4924   22315534.3094
      1169.2664
   1130027.34049    872060.07148  20396975.9144   20396971.8164
     -1634.1724
  -1014583.73049   -788115.78847  23166003.1254   23165999.9884
       994.4384
   3042618.56249   2350960.47148  22273184.3754   22273179.5984
     -3850.0944
   -119006.38949    -95765.13848  21324128.8284   21324125.4454
        12.7664
 04  9 17 20 59 15.0000000  0  6G 3G 8G13G19G23G27
    728764.82049    561381.25447  22935489.3984   22935487.1294
     -1185.0784
  -1106484.94249   -859665.96548  22312203.5234   22312201.1914
      1165.7664
   1154604.97749    891211.47948  20401653.1254   20401648.8714
     -1643.1094
  -1029449.79149   -799699.68047  23163174.0704   23163170.7344
       987.4384
   3100413.65749   2395995.59348  22284182.5864   22284178.1214
     -3856.1724
   -119174.56449    -95896.16748  21324097.2034   21324093.5514
         9.4384
 04  9 17 20 59 30.0000000  0  6G 3G 8G13G19G23G27
    746619.39949    575293.93747  22938886.9064   22938884.8134
     -1195.6874
  -1123945.26849   -873271.38448  22308881.0164   22308878.3714
      1162.2034
   1179318.34649    910468.64948  20406355.7734   20406351.7194
     -1652.1564
  -1044209.67449   -811200.83147  23160365.0394   23160362.5204
       980.3594
   3158302.83549   2441104.01448  22295198.7424   22295194.3054
     -3862.5314
   -119290.78149    -95986.71748  21324074.5944   21324071.1374
         5.9224
 04  9 17 20 59 45.0000000  0  6G 3G 8G13G19G23G27
    764633.34549    589330.79547  22942314.9454   22942313.5824
     -1206.1564
  -1141350.30349   -886833.73247  22305568.8914   22305566.0234
      1158.5634
   1204168.96049    929832.76648  20411084.8914   20411080.2504
     -1661.2034
  -1058861.55949   -822617.81347  23157576.8204   23157574.2274
       973.2814
   3216287.33949   2486286.70248  22306232.6334   22306228.3404
     -3868.7194
   -119353.65149    -96035.69948  21324062.7664   21324059.0864
         2.4534
 04  9 17 21  0  0.0000000  0  6G 3G 8G13G19G23G27
    782805.13349    603490.65847  22945772.7194   22945771.3754
     -1216.4374
  -1158701.55349   -900354.17247  22302266.7814   22302263.7854
      1155.1884
   1229155.40349    949302.71748  20415839.1094   20415835.3204
     -1670.0004
  -1073406.66149   -833951.61647  23154808.8054   23154805.8484
       966.3914
   3274365.37149   2531542.26848  22317284.2584   22317280.6294
     -3874.7194
   -119364.73249    -96044.32148  21324060.7194   21324057.4654
        -0.6874
 04  9 17 21  0 15.0000000  0  6G 3G 8G13G19G23G27
    801133.90449    617772.84647  22949260.6094   22949259.1994
     -1226.9064
  -1175999.67049   -913833.20047  22298974.8204   22298972.5984
      1151.7344
   1254276.83749    968877.85748  20420620.1724   20420615.7974
     -1679.0004
  -1087845.48249   -845202.59347  23152061.8914   23152057.8324
       959.3134
   3332535.91849   2576869.94448  22328354.2734   22328349.7504
     -3880.8284
   -119324.96249    -96013.32148  21324068.3284   21324064.7234
        -4.0944
 04  9 17 21  0 30.0000000  0  6G 3G 8G13G19G23G27
    819616.38749    632174.77947  22952777.9384   22952775.8754
     -1237.4534
  -1193248.21349   -927273.59948  22295693.0474   22295689.9774
      1148.0944
   1279529.89349    988555.56648  20425425.5704   20425420.7704
     -1688.1254
  -1102181.00449   -856373.09247  23149333.1484   23149330.0234
       951.9844
   3390795.48949   2622266.97748  22339440.6724   22339436.4384
     -3887.1724
   -119237.53849    -95945.19348  21324085.0944   21324081.5394
        -7.6254
 04  9 17 21  0 45.0000000  0  6G 3G 8G13G19G23G27
    838259.68749    646702.04447  22956325.2664   22956323.0704
     -1248.0314
  -1210440.18249   -940669.92848  22292421.3914   22292418.3134
      1144.4224
   1304921.60149   1008341.32048  20430257.1564   20430253.0124
     -1697.2034
  -1116406.06949   -867457.51147  23146627.0864   23146623.0164
       944.8444
   3449151.02149   2667738.79248  22350545.1334   22350540.9414
     -3893.3754
   -119095.52249    -95834.52548  21324112.0944   21324108.5394
       -11.0944
 04  9 17 21  1  0.0000000  0  6G 3G 8G13G19G23G27
    857059.05749    661350.93047  22959902.7814   22959900.7624
     -1258.5944
  -1227580.04649   -954025.64648  22289159.7894   22289157.8794
      1140.9064
   1330447.41349   1028231.55048  20435114.7194   20435109.9734
     -1706.2034
  -1130524.88149   -878459.14347  23143939.9454   23143935.9184
       937.6254
   3507597.52949   2713281.50148  22361667.2424   22361662.3984
     -3899.5164
   -118903.57049    -95684.93748  21324148.4454   21324145.2664
       -14.5164
 04  9 17 21  1 15.0000000  0  6G 3G 8G13G19G23G27
    876012.86649    676120.15547  22963509.5084   22963507.9694
     -1268.7344
  -1244669.47449   -967342.05648  22285907.9844   22285904.9654
      1137.5314
   1356105.77749   1048225.08348  20439997.3444   20439993.1134
     -1715.0164
  -1144538.77849   -889379.01047  23141272.8674   23141269.7424
       930.6884
   3566133.37249   2758893.81747  22372806.1884   22372801.8554
     -3905.4374
   -118663.26849    -95497.67948  21324194.1094   21324190.6414
       -17.6414
 04  9 17 21  1 30.0000000  0  6G 3G 8G13G19G23G27
    895123.14049    691011.30147  22967145.7504   22967144.3714
     -1279.1414
  -1261706.54749   -980617.67748  22282665.9304   22282662.5984
      1134.2034
   1381898.53449   1068323.33748  20444905.3524   20444900.9774
     -1723.8594
  -1158445.48949   -900215.37347  23138626.7894   23138623.4884
       923.6414
   3624760.25449   2804577.07847  22383962.4534   22383958.1214
     -3911.3444
   -118372.80349    -95271.33148  21324249.4304   21324245.7234
       -20.9534
 04  9 17 21  1 45.0010000  0  6G 3G 8G13G19G23G27
    914389.49249    706024.05547  22970812.9194   22970810.8174
     -1289.4064
  -1278694.09849   -993854.70648  22279432.8564   22279430.4034
      1130.6564
   1407825.79049   1088526.39348  20449838.9974   20449835.0484
     -1732.7974
  -1172247.29749   -910969.98747  23136000.1464   23135996.4784
       916.4844
   3683480.14849   2850332.81847  22395136.6144   22395131.8604
     -3917.3914
   -118033.72649    -95007.10948  21324314.0134   21324310.5834
       -24.2194
 04  9 17 21  2  0.0010000  0  6G 3G 8G13G19G23G27
    933807.46249    721154.97347  22974507.5674   22974505.6494
     -1299.8754
  -1295631.79649  -1007052.88848  22276210.1304   22276207.0874
      1127.2664
   1433882.18849   1108830.08948  20454797.2084   20454793.3374
     -1741.7814
  -1185944.02049   -921642.72447  23133394.1774   23133390.6104
       909.3914
   3742283.20649   2896153.35447  22406326.4664   22406321.6384
     -3923.3754
   -117648.02749    -94706.54648  21324387.4424   21324384.2084
       -27.5314
 04  9 17 21  2 15.0010000  0  6G 3G 8G13G19G23G27
    953380.15349    736406.44747  22978231.9034   22978230.3414
     -1309.9844
  -1312518.88049  -1020211.62448  22272996.3804   22272993.8804
      1124.1724
   1460071.37449   1129237.24348  20459781.2164   20459777.1384
     -1750.3594
  -1199534.40449   -932232.60047  23130807.8254   23130803.7744
       902.4694
   3801175.03949   2942043.06347  22417533.3644   22417528.8494
     -3929.0164
   -117213.84349    -94368.21448  21324469.9974   21324466.1494
       -30.5314
 04  9 17 21  2 30.0010000  0  6G 3G 8G13G19G23G27
    973104.54149    751776.09847  22981985.4424   22981983.1964
     -1320.0474
  -1329358.42249  -1033333.32148  22269791.9354   22269789.3964
      1121.0944
   1486390.19649   1149745.41548  20464789.4274   20464785.1654
     -1758.9694
  -1213021.19549   -942741.75047  23128240.8174   23128237.1774
       895.7034
   3860152.31049   2987999.34748  22428756.8804   22428751.5794
     -3934.7344
   -116734.32849    -93994.55848  21324561.2084   21324558.0834
       -33.5164
 04  9 17 21  2 45.0010000  0  6G 3G 8G13G19G23G27
    992983.05749    767265.88447  22985767.9584   22985766.4074
     -1330.3444
  -1346147.91249  -1046416.01048  22266596.7474   22266593.9814
      1117.5784
   1512841.26549   1170356.64148  20469822.9194   20469818.9504
     -1767.8284
  -1226401.72949   -953168.10147  23125694.3724   23125690.6734
       888.3914
   3919217.21749   3034023.93348  22439996.3644   22439991.7864
     -3940.6414
   -116206.96949    -93583.61348  21324661.6384   21324658.0794
       -36.8444
 04  9 17 21  3  0.0010000  0  6G 3G 8G13G19G23G27
   1013016.81249    782876.61647  22989580.1854   22989578.7434
     -1340.8284
  -1362886.13049  -1059458.74848  22263411.9974   22263408.9704
      1114.1094
   1539425.64049   1191071.74548  20474881.7554   20474877.6884
     -1776.7664
  -1239674.47549   -963510.47947  23123169.3884   23123165.5444
       881.1724
   3978370.73849   3080117.54648  22451253.2394   22451248.4814
     -3946.5944
   -115630.60249    -93134.49048  21324771.4354   21324767.6264
       -40.1564
 04  9 17 21  3 15.0010000  0  6G 3G 8G13G19G23G27
   1033204.07649    798606.98247  22993421.6854   22993420.1494
     -1350.7974
  -1379574.88449  -1072462.93347  22260235.9744   22260233.3764
      1111.1094
   1566141.72049   1211889.46848  20479965.6064   20479961.4744
     -1785.2814
  -1252840.85949   -973769.95747  23120663.5284   23120660.5364
       874.5004
   4037611.02649   3126278.78348  22462525.9274   22462521.5284
     -3952.0624
   -115007.00849    -92648.56348  21324890.0364   21324886.7474
       -43.0004
 04  9 17 21  3 30.0010000  0  6G 3G 8G13G19G23G27
   1053541.63449    814454.43847  22997291.5364   22997290.0754
     -1360.8594
  -1396217.30049  -1085431.02748  22257068.6614   22257065.7864
      1107.8914
   1592986.21649   1232807.25148  20485074.3104   20485069.9584
     -1793.9694
  -1265903.86849   -983948.90147  23118177.3254   23118174.1574
       867.3914
   4096934.61049   3172504.91248  22473814.7714   22473810.2244
     -3957.6724
   -114339.46849    -92128.38848  21325016.8964   21325013.1534
       -45.9534
 04  9 17 21  3 45.0010000  0  6G 3G 8G13G19G23G27
   1074030.46649    830419.79447  23001189.8804   23001189.5524
     -1371.1094
  -1412812.50049  -1098362.31848  22253911.2164   22253908.1034
      1104.6414
   1619960.15349   1253825.91748  20490207.0524   20490202.6884
     -1802.6724
  -1278862.18149   -994046.24447  23115711.7784   23115709.0524
       860.2814
   4156342.42749   3218796.69648  22485119.4974   22485115.4154
     -3963.4064
   -113626.94749    -91573.16748  21325152.3024   21325149.0404
       -49.0944
 04  9 17 21  4  0.0010000  0  6G 3G 8G13G19G23G27
   1094674.20749    846505.84147  23005119.3024   23005117.6854
     -1381.4374
  -1429356.83549  -1111253.98247  22250762.7864   22250759.5834
      1101.2194
   1647066.99949   1274948.13148  20495365.1774   20495361.1264
     -1811.6094
  -1291711.83649  -1004058.93047  23113266.7394   23113263.7314
       853.0634
   4215837.73649   3265156.63747  22496440.7394   22496436.9114
     -3969.3124
   -112865.83449    -90980.07948  21325297.3254   21325294.1144
       -52.3284
 04  9 17 21  4 15.0010000  0  6G 3G 8G13G19G23G27
   1115470.63349    862710.86347  23009076.6854   23009074.8724
     -1391.5314
  -1445852.23049  -1124107.52748  22247623.8804   22247620.9784
      1098.0314
   1674304.83649   1296172.41948  20500548.4974   20500544.2714
     -1820.2504
  -1304454.69749  -1013988.39347  23110841.1774   23110838.1534
       845.8914
   4275418.25649   3311582.98647  22507778.5834   22507774.3994
     -3974.8754
   -112058.30549    -90350.83348  21325450.9424   21325447.3764
       -55.4064
 04  9 17 21  4 30.0010000  0  6G 3G 8G13G19G23G27
   1136417.79049    879033.33647  23013062.8104   23013060.7674
     -1401.3594
  -1462300.79049  -1136924.54748  22244493.2784   22244490.3644
      1095.1414
   1701671.79549   1317497.32648  20505756.1924   20505751.7004
     -1828.6874
  -1317092.36549  -1023835.91547  23108436.6854   23108432.8064
       839.0944
   4335081.87849   3358074.10147  22519132.3174   22519127.7044
     -3980.2664
   -111206.26149    -89686.88348  21325613.1304   21325609.7944
       -58.1874
 04  9 17 21  4 45.0010000  0  6G 3G 8G13G19G23G27
   1157518.13249    895475.16847  23017077.7554   23017075.7474
     -1411.5474
  -1478700.08549  -1149703.20348  22241372.6384   22241370.1184
      1091.9384
   1729170.28149   1338924.71248  20510988.6774   20510984.6344
     -1837.3284
  -1329622.06349  -1033599.28047  23106052.3254   23106049.0404
       831.9844
   4394830.88349   3404631.74648  22530502.8804   22530497.9974
     -3985.7664
   -110307.14449    -88986.26548  21325783.9354   21325780.5244
       -61.2034
 04  9 17 21  5  0.0010000  0  6G 3G 8G13G19G23G27
   1178772.98549    912037.41047  23021122.4504   23021120.2594
     -1422.1254
  -1495048.97049  -1162442.55848  22238261.3724   22238259.1424
      1088.2034
   1756801.55049   1360455.57948  20516246.7634   20516243.0404
     -1846.5314
  -1342042.21949  -1043277.29947  23103689.8414   23103685.8374
       824.3444
   4454666.38549   3451256.78248  22541888.5284   22541884.3884
     -3991.8914
   -109359.86649    -88248.11548  21325964.4194   21325960.6464
       -64.7664
 04  9 17 21  5 15.0010000  0  6G 3G 8G13G19G23G27
   1200179.35649    928717.72947  23025196.1854   23025193.9894
     -1432.2034
  -1511350.23449  -1175144.81648  22235159.5914   22235157.1034
      1085.1884
   1784562.61749   1382087.57848  20521529.9664   20521525.6534
     -1855.0944
  -1354355.60349  -1052872.10147  23101345.5444   23101342.1854
       817.2664
   4514585.12449   3497946.67947  22553291.4664   22553287.0364
     -3997.4224
   -108367.26249    -87474.64848  21326153.2714   21326150.0834
       -67.7814
 04  9 17 21  5 30.0010000  0  6G 3G 8G13G19G23G27
   1221735.71949    945514.89247  23029298.6224   23029296.3294
     -1442.2034
  -1527605.38849  -1187811.13448  22232066.4504   22232064.3724
      1082.0164
   1812452.15049   1403819.68048  20526836.9744   20526832.9784
     -1863.7194
  -1366563.26549  -1062384.54347  23099022.9114   23099019.4194
       810.2344
   4574585.52349   3544700.19247  22564708.7944   22564704.1224
     -4002.8284
   -107330.82749    -86667.02348  21326350.5364   21326346.8024
       -70.5944
 04  9 17 21  5 45.0010000  0  6G 3G 8G13G19G23G27
   1243444.86349    962431.13847  23033429.5674   23033427.4814
     -1452.4064
  -1543811.31949  -1200439.10648  22228982.9894   22228980.1884
      1078.6884
   1840472.96849   1425654.07948  20532169.2634   20532164.6814
     -1872.4694
  -1378662.11149  -1071812.19147  23096720.6384   23096717.2824
       802.8914
   4634670.24049   3591519.42748  22576142.4114   22576138.4354
     -4008.5004
   -106247.77749    -85823.07848  21326556.5674   21326553.9154
       -73.8594
 04  9 17 21  6  0.0010000  0  7G 3G 8G13G19G23G27G28
   1265305.19149    979465.17647  23037589.4274   23037587.0954
     -1462.5004
  -1559970.10749  -1213030.34948  22225907.6464   22225905.3924
      1075.5634
   1868623.39649   1447589.49248  20537526.2244   20537521.7634
     -1881.1254
  -1390653.57449  -1081156.14347  23094438.1854   23094434.8604
       795.7344
   4694837.29449   3638402.80947  22587591.5364   22587587.2394
     -4013.9374
   -105119.74849    -84944.08548  21326771.3024   21326767.2514
       -76.7974
    -98113.10659    -75389.16056  24440624.5674   24440624.5794
      2277.1254
 04  9 17 21  6 15.0010000  0  7G 3G 8G13G19G23G27G28
   1287315.94249    996616.41847  23041777.5994   23041775.5874
     -1472.2194
  -1576081.97449  -1225585.01148  22222841.7314   22222839.0564
      1072.6884
   1896902.72049   1469625.32148  20542907.3414   20542903.7784
     -1889.4694
  -1402537.99149  -1090416.69247  23092176.9354   23092173.3764
       788.8914
   4755085.90749   3685349.75447  22599056.8104   22599052.5284
     -4019.1724
   -103947.53349    -84030.66648  21326994.1694   21326991.0674
       -79.5474
   -132249.25849   -101988.56346  24434129.0994   24434128.5634
      2274.3134
 04  9 17 21  6 30.0010000  0  7G 3G 8G13G19G23G27G28
   1309478.19849   1013885.72047  23045994.4814   23045992.8564
     -1482.3284
  -1592146.05049  -1238102.45648  22219784.6464   22219781.9424
      1069.4844
   1925311.94649   1491762.38548  20548313.2164   20548309.4034
     -1898.1094
  -1414313.90549  -1099592.71447  23089936.1924   23089931.9314
       781.6094
   4815416.86349   3732360.84948  22610537.5134   22610532.6264
     -4024.5474
   -102729.93249    -83081.87448  21327226.1144   21327222.6814
       -82.5164
   -166339.16649   -128552.06347  24427642.0364   24427641.5244
      2271.3134
 04  9 17 21  6 45.0010000  0  7G 3G 8G13G19G23G27G28
   1331790.31649   1031271.80547  23050240.5054   23050239.0634
     -1492.4064
  -1608163.93549  -1250583.90148  22216736.7944   22216733.7594
      1066.3754
   1953849.49549   1513999.43748  20553744.0214   20553739.8924
     -1906.7034
  -1425982.75549  -1108685.29947  23087715.5914   23087712.1184
       774.3594
   4875828.60249   3779434.90648  22622033.3964   22622029.2744
     -4030.0474
   -101468.69349    -82099.08248  21327466.0914   21327462.7314
       -85.4844
   -200384.24849   -155080.53646  24421163.5284   24421162.6854
      2268.2344
 04  9 17 21  7  0.0010000  0  7G 3G 8G13G19G23G27G28
   1354253.45249   1048775.56947  23054514.8104   23054513.8104
     -1502.6874
  -1624134.31749  -1263028.33448  22213697.7784   22213694.6144
      1063.0164
   1982516.59149   1536337.43348  20559199.3254   20559194.9114
     -1915.5314
  -1437542.97049  -1117693.23447  23085515.8174   23085511.5794
       766.9534
   4936321.91649   3826572.51448  22633545.2004   22633540.1734
     -4035.7664
   -100162.49749    -81081.25848  21327714.5284   21327711.2824
       -88.6724
   -234383.00949   -181573.01146  24414692.9744   24414693.1264
      2264.9694
 04  9 17 21  7 15.0010000  0  7G 3G 8G13G19G23G27G28
   1376871.65549   1066400.14347  23058819.9814   23058817.7314
     -1512.7664
  -1640053.51049  -1275432.87248  22210668.2634   22210665.2314
      1059.7814
   2011317.22349   1558779.48148  20564679.6064   20564675.4854
     -1924.2504
  -1448990.33949  -1126613.22947  23083337.3024   23083333.7784
       759.6254
   4996900.55949   3873776.61447  22645073.1534   22645068.5444
     -4041.1874
    -98807.35749    -80025.30348  21327972.6924   21327969.2554
       -91.6874
   -268331.41449   -208026.17446  24408233.0604   24408232.1384
      2261.7504
 04  9 17 21  7 30.0010000  0  7G 3G 8G13G19G23G27G28
   1399638.46149   1084140.52647  23063152.0054   23063149.9384
     -1522.6254
  -1655927.43749  -1287802.15248  22207647.5524   22207644.1064
      1056.9224
   2040245.12249   1581320.70348  20570184.4744   20570179.9974
     -1932.7034
  -1460330.88049  -1135449.97347  23081179.0444   23081175.7904
       752.6094
   5057558.07749   3921042.19847  22656615.6774   22656610.8764
     -4046.3124
    -97409.68549    -78936.19148  21328238.0674   21328235.0214
       -94.4064
   -302235.63649   -234444.89946  24401780.7944   24401780.3644
      2259.0944
 04  9 17 21  7 45.0010000  0  7G 3G 8G13G19G23G27G28
   1422553.50949   1101996.44247  23067511.9814   23067511.1424
     -1532.5164
  -1671756.55149  -1300136.49748  22204635.3254   22204632.1384
      1053.8444
   2069299.95549   1603960.83748  20575713.3174   20575709.5244
     -1941.1724
  -1471564.59349  -1144203.49447  23079041.8644   23079038.0134
       745.4064
   5118293.96549   3968368.82447  22668173.3334   22668168.7204
     -4051.5474
    -95969.72449    -77814.14248  21328512.3254   21328509.1224
       -97.3914
   -336095.81149   -260829.36446  24395337.5444   24395337.3174
      2256.0004
 04  9 17 21  8  0.0010000  0  7G 3G 8G13G19G23G27G28
   1445619.20449   1119969.71347  23071901.3724   23071899.6224
     -1542.5474
  -1687538.71749  -1312434.27648  22201631.9114   22201628.9354
      1050.6724
   2098484.06649   1626701.69948  20581267.0524   20581262.6534
     -1949.6874
  -1482688.88049  -1152871.72847  23076924.5364   23076920.8024
       738.1254
   5179110.47949   4015758.27747  22679746.1694   22679741.6304
     -4056.9064
    -94485.13449    -76657.31048  21328794.4424   21328791.5444
      -100.3124
   -369909.39749   -287177.48846  24388902.7004   24388903.5634
      2252.8444
 04  9 17 21  8 15.0010000  0  7G 3G 8G13G19G23G27G28
   1468834.01449   1138059.19347  23076319.1064   23076317.0444
     -1552.6254
  -1703275.01049  -1324696.29948  22198637.4974   22198634.9234
      1047.6414
   2127796.14649   1649542.28048  20586844.9504   20586840.3564
     -1958.3754
  -1493704.77949  -1161455.50847  23074828.8024   23074824.8254
       730.8284
   5240005.88149   4063209.21147  22691333.7944   22691329.6694
     -4062.3124
    -92957.24849    -75466.73748  21329085.7784   21329082.1184
      -103.2814
   -403677.48949   -313490.15146  24382477.3644   24382476.9424
      2249.7194
 04  9 17 21  8 30.0010000  0  7G 3G 8G13G19G23G27G28
   1492197.33149   1156264.39147  23080764.5754   23080763.2164
     -1562.5624
  -1718965.95949  -1336922.99448  22195651.5214   22195648.4664
      1044.5004
   2157235.41149   1672481.97048  20592447.2244   20592442.7864
     -1966.8754
  -1504612.64949  -1169955.12147  23072752.6534   23072749.1184
       723.5634
   5300979.46949   4110721.05547  22702936.9034   22702933.0284
     -4067.5314
    -91386.80549    -74243.00948  21329384.2634   21329381.0524
      -106.1564
   -437400.60849   -339767.74546  24376060.0054   24376059.1034
      2246.6724
 04  9 17 21  8 45.0010000  0  7G 3G 8G13G19G23G27G28
   1515711.13449   1174586.84547  23085239.5604   23085238.0214
     -1572.4064
  -1734609.65449  -1349112.85048  22192675.0604   22192672.0604
      1041.4844
   2186804.00049   1695522.42848  20598073.5834   20598069.6034
     -1975.3754
  -1515410.08549  -1178368.66747  23070698.0754   23070694.1574
       716.3594
   5362032.98949   4158295.18847  22714555.3174   22714551.5754
     -4072.7664
    -89771.62349    -72984.40648  21329691.7314   21329688.4194
      -109.0164
   -471076.46949   -366008.63246  24369651.4504   24369650.5714
      2243.7034
 04  9 17 21  9  0.0010000  0  8G 3G 8G13G19G23G27G28G10
   1539371.96749   1193023.87247  23089742.8804   23089740.2394
     -1582.4064
  -1750209.58149  -1361268.61548  22189705.8564   22189702.4234
      1038.4224
   2216498.41349   1718660.93248  20603724.2714   20603720.3724
     -1983.9374
  -1526100.44449  -1186698.77347  23068663.4354   23068659.7784
       708.9844
   5423162.66549   4205928.67047  22726188.0054   22726183.9584
     -4077.9844
    -88115.36549    -71693.80848  21330006.5364   21330003.5674
      -111.8914
   -504708.55349   -392215.30546  24363251.0444   24363250.7354
      2240.5164
    -38729.73659    -32719.75556  24386983.2084   24386980.9154
       910.4534
 04  9 17 21  9 15.0010000  0  8G 3G 8G13G19G23G27G28G10
   1563180.34149   1211575.86947  23094272.6534   23094270.7474
     -1592.3124
  -1765765.16449  -1373389.83648  22186745.9894   22186743.4154
      1035.3594
   2246319.21049   1741897.91648  20609398.8884   20609394.6534
     -1992.4694
  -1536682.74949  -1194944.69947  23066650.1064   23066645.6264
       701.7504
   5484369.01749   4253621.89947  22737835.3644   22737831.0214
     -4083.1724
    -86417.23349    -70370.58848  21330329.7944   21330327.1964
      -114.7814
   -538296.03149   -418387.25546  24356859.6144   24356858.5484
      2237.5314
    -52326.38349    -43314.54846  24384395.8104   24384393.0754
       902.0944
 04  9 17 21  9 30.0010000  0  8G 3G 8G13G19G23G27G28G10
   1587137.35749   1230243.68647  23098831.4354   23098829.6774
     -1602.3284
  -1781275.28249  -1385475.62348  22183794.4194   22183791.5404
      1032.2664
   2276267.58549   1765234.30948  20615098.0754   20615093.4384
     -2001.1094
  -1547155.51149  -1203105.24047  23064656.5364   23064652.9784
       694.2814
   5545652.96049   4301375.57647  22749497.3024   22749493.1264
     -4088.4224
    -84676.21849    -69013.94848  21330661.5284   21330657.7784
      -117.7664
   -571837.59149   -444523.42747  24350476.8804   24350475.9544
      2234.3754
    -65797.42749    -53811.41946  24381832.3804   24381829.9074
       893.6884
 04  9 17 21  9 45.0010000  0  8G 3G 8G13G19G23G27G28G10
   1611246.83549   1249030.31347  23103419.5754   23103417.9194
     -1612.4064
  -1796735.92349  -1397522.84848  22180852.1064   22180849.0754
      1029.0944
   2306347.38149   1788673.11948  20620822.1854   20620817.9854
     -2009.6564
  -1557514.68949  -1211177.29047  23062685.3884   23062681.7554
       686.8134
   5607018.14549   4349192.57147  22761174.4894   22761170.8134
     -4093.6724
    -82888.37849    -67620.80548  21331001.5364   21330998.2244
      -120.6564
   -605329.14949   -470620.65946  24344103.0994   24344102.9424
      2231.1254
    -79138.70349    -64207.23447  24379293.7944   24379291.0954
       885.1414
 04  9 17 21 10  0.0010000  0  8G 3G 8G13G19G23G27G28G10
   1635505.85349   1267933.44747  23108035.3884   23108034.1144
     -1622.3284
  -1812150.04549  -1409533.83448  22177918.9664   22177916.0564
      1025.9534
   2336555.68349   1812212.04648  20626570.9504   20626566.2944
     -2018.2504
  -1567762.80749  -1219162.79747  23060735.2864   23060731.8254
       679.3914
   5668461.54149   4397070.50147  22772867.1534   22772862.3994
     -4098.9064
    -81056.59349    -66193.44548  21331350.0284   21331346.9854
      -123.6254
   -638773.37549   -496680.96647  24337739.3804   24337738.7124
      2227.9534
    -92352.94749    -74504.03246  24376778.6614   24376776.5284
       876.7974
 04  9 17 21 10 15.0010000  0  8G 3G 8G13G19G23G27G28G10
   1659912.28049   1286951.46247  23112680.8334   23112678.4034
     -1632.0784
  -1827519.88649  -1421510.32148  22174994.5914   22174991.1964
      1023.1414
   2366890.40849   1835849.50748  20632342.8254   20632338.6614
     -2026.5164
  -1577901.80849  -1227063.26847  23058805.8804   23058801.7314
       672.2814
   5729980.73849   4445007.50147  22784573.3174   22784569.7944
     -4103.8444
    -79183.02749    -64733.51548  21331706.3564   21331703.3374
      -126.2814
   -672172.26049   -522705.97847  24331384.0444   24331382.7904
      2225.1094
   -105441.99549    -84703.24746  24374287.5834   24374285.2984
       868.3754
 04  9 17 21 10 30.0010000  0  8G 3G 8G13G19G23G27G28G10
   1684467.86049   1306085.69947  23117352.5444   23117350.7824
     -1642.1564
  -1842843.29349  -1433450.60848  22172078.2784   22172074.7674
      1019.7974
   2397353.35749   1859586.86248  20638139.7314   20638135.6534
     -2035.3914
  -1587929.46449  -1234876.96647  23056897.1384   23056894.1964
       664.5784
   5791577.32849   4493004.81347  22796294.4034   22796290.9074
     -4109.1874
    -77265.91549    -63239.65448  21332071.2554   21332068.0094
      -129.4534
   -705523.85749   -548694.11246  24325035.8884   24325035.4034
      2221.7814
   -118403.96849    -94803.49746  24371821.4584   24371818.8534
       859.7194
 04  9 17 21 10 45.0010000  0  8G 3G 8G13G19G23G27G28G10
   1709171.58549   1325335.35347  23122055.0604   23122052.1774
     -1651.8284
  -1858121.26649  -1445355.50548  22169171.2244   22169167.7434
      1017.0474
   2427943.59249   1883423.40248  20643961.2714   20643956.8214
     -2043.5314
  -1597846.51249  -1242604.50647  23055010.7554   23055006.5914
       657.5164
   5853250.35249   4541061.66947  22808030.6224   22808026.6184
     -4113.9694
    -75306.19549    -61712.59048  21332444.3174   21332441.1494
      -132.0314
   -738828.97849   -574646.03047  24318698.4974   24318698.0954
      2218.9064
   -131239.47149   -104805.17447  24369378.7084   24369376.8024
       851.6094
 04  9 17 21 11  0.0010000  0  8G 3G 8G13G19G23G27G28G10
   1734021.86349   1344699.22147  23126782.4274   23126781.0134
     -1661.6414
  -1873355.41549  -1457226.24748  22166272.0524   22166268.3844
      1014.1094
   2458659.53149   1907357.90648  20649806.1694   20649801.6264
     -2051.9374
  -1607654.06149  -1250246.68947  23053143.6694   23053140.4354
       650.2034
   5914997.99049   4589176.67247  22819780.8414   22819776.7984
     -4119.0624
    -73305.18949    -60153.34948  21332825.1614   21332822.0714
      -134.7974
   -772088.78449   -600562.66647  24312370.6614   24312369.3254
      2215.7814
   -143949.74949   -114709.25647  24366960.5054   24366957.2984
       843.1254
 04  9 17 21 11 15.0010000  0  8G 3G 8G13G19G23G27G28G10
   1759020.69049   1364178.82847  23131539.6064   23131537.9584
     -1671.6254
  -1888543.65949  -1469061.22248  22163381.7004   22163379.0174
      1010.9534
   2489503.23349   1931391.95648  20655675.5834   20655671.4384
     -2060.5474
  -1617349.91049  -1257801.85347  23051298.9504   23051295.0524
       642.5784
   5976822.10749   4637351.25447  22831545.7394   22831541.6924
     -4124.1254
    -71260.97249    -58560.45148  21333214.3804   21333211.1034
      -137.7504
   -805301.13749   -626442.34247  24306050.2244   24306049.1304
      2212.5634
   -156532.61749   -124514.08846  24364565.4974   24364563.2354
       834.4694
 04  9 17 21 11 30.0010000  0  8G 3G 8G13G19G23G27G28G10
   1784169.68549   1383775.48547  23136325.5284   23136323.9424
     -1681.4374
  -1903684.12949  -1480858.96448  22160500.5914   22160497.2244
      1008.0004
   2520476.25649   1955526.78148  20661569.7394   20661565.7824
     -2069.0314
  -1626932.19149  -1265268.53447  23049475.6304   23049471.5174
       635.2504
   6038724.16249   4685586.60347  22843325.7714   22843321.3254
     -4129.1874
    -69171.84549    -56932.54148  21333611.9814   21333608.3924
      -140.5624
   -838464.24449   -652283.62147  24299738.5054   24299738.3024
      2209.4534
   -168986.30049   -134218.26546  24362195.6694   24362193.4154
       826.1414
 04  9 17 21 11 45.0010000  0  8G 3G 8G13G19G23G27G28G10
   1809466.74349   1403487.49447  23141139.6614   23141137.6064
     -1691.2344
  -1918779.04849  -1492621.21848  22157628.0604   22157625.0094
      1004.9844
   2551576.48249   1979760.71948  20667487.6614   20667483.7084
     -2077.5004
  -1636402.56249  -1272647.98547  23047672.7394   23047669.1494
       627.8134
   6100701.80949   4733880.83647  22855119.2004   22855115.5954
     -4134.2344
    -67040.05049    -55271.39748  21334017.2314   21334013.5834
      -143.4374
   -871580.14649   -678088.11147  24293437.0674   24293435.9744
      2206.3754
   -181312.68449   -143823.22546  24359849.9034   24359847.8534
       817.5944
 04  9 17 21 12  0.0010000  0  8G 3G 8G13G19G23G27G28G10
   1834911.71649   1423314.75147  23145981.2554   23145979.6144
     -1701.2194
  -1933828.62149  -1504348.14648  22154764.4424   22154761.5054
      1001.7814
   2582804.02149   2004093.88048  20673430.3564   20673425.9114
     -2086.0624
  -1645760.92749  -1279940.14647  23045892.3494   23045888.7984
       620.2034
   6162754.87049   4782233.82947  22866927.7864   22866923.2594
     -4139.2814
    -64865.42949    -53576.88548  21334430.9584   21334427.8454
      -146.3594
   -904648.53149   -703855.58347  24287144.0524   24287143.2634
      2203.0314
   -193511.64949   -153328.90647  24357529.5834   24357527.0524
       809.0474
 04  9 17 21 12 15.0010000  0  8G 3G 8G13G19G23G27G28G10
   1860505.11749   1443257.66047  23150851.6854   23150849.4314
     -1711.2814
  -1948832.04849  -1516039.10448  22151909.4034   22151906.0404
       998.5474
   2614159.25449   2028526.52148  20679396.7944   20679392.3134
     -2094.7664
  -1655006.39549  -1287144.37247  23044133.1464   23044128.4274
       612.4694
   6224883.63249   4830645.81947  22878751.0914   22878746.5484
     -4144.6414
    -62647.54649    -51848.65248  21334852.8884   21334849.8454
      -149.4374
   -937668.77049   -729585.53747  24280860.5914   24280859.4894
      2199.5474
   -205582.34449   -162734.59347  24355232.4354   24355229.6734
       800.1414
 04  9 17 21 12 30.0010000  0  8G 3G 8G13G19G23G27G28G10
   1886245.68849   1463315.26047  23155750.4584   23155747.7784
     -1721.2194
  -1963790.57749  -1527695.08048  22149062.7714   22149059.7944
       995.4384
   2645641.05549   2053057.78748  20685387.9274   20685383.1814
     -2103.3124
  -1664139.68849  -1294261.17647  23042395.0994   23042391.6144
       604.8444
   6287086.56449   4879115.60047  22890587.1614   22890583.4274
     -4149.5944
    -60387.53749    -50087.59548  21335283.2784   21335280.3844
      -152.3594
   -970641.88749   -755278.75547  24274585.4584   24274584.6464
      2196.3594
   -217525.82849   -172041.22347  24352959.3174   24352956.6264
       791.7974
 04  9 17 21 12 45.0010000  0  8G 3G 8G13G19G23G27G28G10
   1912137.28049   1483490.53347  23160676.9194   23160674.9274
     -1731.1254
  -1978700.21949  -1539312.95948  22146225.4354   22146222.6304
       992.3444
   2677253.36249   2077690.75548  20691403.3174   20691398.9384
     -2111.8914
  -1673156.87149  -1301287.50347  23040679.4974   23040675.0244
       597.2814
   6349367.46449   4927646.12447  22902438.8564   22902435.6494
     -4154.7504
    -58081.47949    -48290.65548  21335722.2164   21335718.5994
      -155.3124
  -1003563.83349   -780932.14247  24268321.6064   24268320.1144
      2193.1254
   -229338.06749   -181245.54247  24350711.8024   24350709.0564
       783.1884
 04  9 17 21 13  0.0010000  0  8G 3G 8G13G19G23G27G28G10
   1938175.76149   1503780.26947  23165632.0604   23165630.2314
     -1740.7194
  -1993565.07449  -1550895.93148  22143396.5754   22143393.5524
       989.4694
   2708992.15049   2102422.27848  20697442.5604   20697438.6574
     -2120.1094
  -1682061.67549  -1308226.26047  23038984.7474   23038980.7824
       589.8914
   6411722.21849   4976234.20847  22914304.3174   22914300.9384
     -4159.5474
    -55733.28249    -46460.88848  21336169.4974   21336165.9424
      -157.9534
  -1036438.31349   -806548.50247  24262065.2634   24262064.5214
      2190.0634
   -241022.74949   -190350.48946  24348487.7394   24348485.6694
       774.6724
 04  9 17 21 13 15.0010000  0  8G 3G 8G13G19G23G27G28G10
   1964362.61749   1524185.63647  23170615.6464   23170613.0674
     -1750.4534
  -2008383.75449  -1562442.93048  22140576.7314   22140573.7634
       986.7194
   2740858.73049   2127253.37548  20703506.9894   20703502.3964
     -2128.3914
  -1690852.38749  -1315076.11447  23037311.8724   23037308.1694
       582.5634
   6474151.94149   5024880.72547  22926184.3884   22926180.5994
     -4164.1254
    -53341.63349    -44597.25148  21336624.1614   21336620.8764
      -160.5944
  -1069263.82449   -832126.73447  24255819.3254   24255817.8884
      2187.0004
   -252578.31649   -199354.80146  24346288.9504   24346286.6034
       766.3284
 04  9 17 21 13 30.0010000  0  8G 3G 8G13G19G23G27G28G10
   1990699.00849   1544707.50247  23175626.4354   23175623.9384
     -1760.5004
  -2023154.82949  -1573952.85048  22137765.6224   22137762.7314
       983.3914
   2772854.45549   2152185.11448  20709595.9114   20709591.4704
     -2137.2034
  -1699527.34249  -1321835.77147  23035661.0524   23035656.9814
       574.5944
   6536657.82249   5073586.54847  22938079.3494   22938075.3964
     -4169.4534
    -50905.13749    -42698.68248  21337087.6694   21337084.2204
      -163.7034
  -1102038.80649   -857665.59847  24249581.1534   24249580.6814
      2183.4694
   -264003.22349   -208257.28547  24344114.7244   24344112.6854
       757.4844
 04  9 17 21 13 45.0010000  0  8G 3G 8G13G19G23G27G28G10
   2017181.71449   1565343.39147  23180665.8494   23180664.5994
     -1770.6414
  -2037881.48249  -1585428.14648  22134963.6534   22134960.0524
       980.0634
   2804975.97749   2177214.86548  20715708.2084   20715704.1884
     -2145.9064
  -1708089.60749  -1328507.60247  23034031.8174   23034027.9424
       566.8594
   6599236.31549   5122348.98047  22949987.9584   22949984.0634
     -4174.4534
    -48427.10549    -40767.73948  21337559.1064   21337555.4154
      -166.7814
  -1134766.44349   -883167.54347  24243353.5914   24243352.7474
      2180.1094
   -275300.50449   -217060.39647  24341965.3414   24341962.3104
       748.7504
 04  9 17 21 14  0.0010000  0  8G 3G 8G13G19G23G27G28G10
   2043813.85349   1586095.72147  23185733.9114   23185731.9624
     -1780.4374
  -2052560.33849  -1596866.19948  22132170.1854   22132167.0794
       976.9844
   2837226.60249   2202345.23048  20721845.1064   20721841.0324
     -2154.3594
  -1716535.53349  -1335088.78847  23032423.9584   23032420.0604
       559.1724
   6661890.51549   5171170.38147  22961910.2474   22961906.8294
     -4179.4844
    -45904.22849    -38801.85048  21338039.4664   21338035.8884
      -169.7504
  -1167443.25849   -908629.90247  24237135.9744   24237134.6614
      2176.7504
   -286466.72249   -225761.35846  24339840.1384   24339837.0994
       740.0784
 04  9 17 21 14 15.0010000  0  8G 3G 8G13G19G23G27G28G10
   2070593.50749   1606962.98547  23190830.3564   23190828.7354
     -1790.1724
  -2067193.20549  -1608268.41248  22129385.7864   22129382.6854
       974.0634
   2869604.53949   2227574.77948  20728006.4664   20728002.1264
     -2162.7504
  -1724866.61849  -1341580.48847  23030838.7004   23030834.7004
       551.6884
   6724618.46049   5220049.27747  22973847.2004   22973843.2594
     -4184.2344
    -43338.18749    -36802.32848  21338527.8414   21338524.1144
      -172.3914
  -1200070.87649   -934053.92047  24230927.0834   24230925.6144
      2173.5634
   -297503.41049   -234361.33347  24337740.1064   24337737.2634
       731.5474
 04  9 17 21 14 30.0010000  0  8G 3G 8G13G19G23G27G28G10
   2097521.53749   1627945.87447  23195954.3804   23195951.5404
     -1800.0944
  -2081779.50649  -1619634.33348  22126609.9194   22126607.0754
       970.9064
   2902110.46749   2252904.07948  20734192.1774   20734187.5754
     -2171.3284
  -1733081.91249  -1347981.96847  23029275.5604   23029272.2984
       543.8444
   6787420.72549   5268986.07547  22985798.2634   22985794.0674
     -4189.3594
    -40728.32349    -34768.65948  21339023.8564   21339020.6144
      -175.4224
  -1232648.30749   -959438.82147  24224726.8964   24224726.0284
      2170.0784
   -308409.64649   -242859.69847  24335664.0134   24335661.6614
       722.7194
 04  9 17 21 14 45.0010000  0  8G 3G 8G13G19G23G27G28G10
   2124596.71649   1649043.41447  23201106.7084   23201103.9664
     -1810.0474
  -2096320.15349  -1630964.69748  22123843.3254   22123840.0244
       967.6094
   2934743.26049   2278332.22348  20740401.9034   20740397.8064
     -2179.8914
  -1741182.18449  -1354293.81447  23027733.9114   23027730.7164
       536.0314
   6850295.91449   5317979.66547  22997763.3174   22997758.8924
     -4194.2194
    -38075.70549    -32701.68548  21339528.8494   21339525.5244
      -178.5164
  -1265176.50849   -984785.39847  24218537.7394   24218536.1184
      2166.7034
   -319186.38449   -251257.13447  24333613.8334   24333610.5214
       713.9694
 04  9 17 21 15  0.0010000  0  8G 3G 8G13G19G23G27G28G10
   2151819.33149   1670255.85847  23206286.9894   23206284.7284
     -1819.7034
  -2110814.93949  -1642259.31648  22121084.5994   22121081.7394
       964.8444
   2967503.37849   2303859.58048  20746635.8414   20746631.5484
     -2188.2194
  -1749166.74449  -1360515.48247  23026214.6144   23026210.4744
       528.4844
   6913244.20149   5367030.24847  23009742.0284   23009737.3254
     -4198.9064
    -35379.97749    -30601.10548  21340042.2004   21340038.7864
      -181.1094
  -1297654.97749  -1010093.21147  24212356.8024   24212355.3414
      2163.5784
   -329833.13649   -259553.29547  24331587.5214   24331585.0754
       705.4694
 04  9 17 21 15 15.0010000  0  8G 3G 8G13G19G23G27G28G10
   2179187.44049   1691581.66947  23211494.6464   23211493.2284
     -1829.2034
  -2125265.58749  -1653519.54148  22118334.9354   22118331.4114
       962.0944
   3000388.80349   2329484.58648  20752893.7864   20752889.7084
     -2196.3124
  -1757037.36949  -1366648.37847  23024716.9354   23024713.2474
       521.0944
   6976263.55149   5416136.20447  23021733.7864   23021729.5244
     -4203.4694
    -32642.93649    -28468.33848  21340563.0054   21340559.2474
      -183.6724
  -1330085.42949  -1035363.62147  24206185.3024   24206184.6464
      2160.6564
   -340351.51549   -267749.44247  24329586.4194   24329583.7044
       697.1564
 04  9 17 21 15 30.0010000  0  8G 3G 8G13G19G23G27G28G10
   2206701.56949   1713021.25447  23216730.7164   23216728.8924
     -1839.0474
  -2139671.24849  -1664744.71248  22115593.3804   22115590.3804
       958.9384
   3033400.29849   2355207.82948  20759175.5604   20759171.6184
     -2204.9224
  -1764792.98149  -1372691.66647  23023240.9354   23023237.5874
       513.3134
   7039354.41549   5465297.87847  23033739.9504   23033735.6814
     -4208.3444
    -29863.84149    -26302.79348  21341091.4974   21341087.9384
      -186.6414
  -1362466.90549  -1060595.84946  24200022.9194   24200022.0214
      2157.1884
   -350740.55249   -275844.78947  24327609.2634   24327607.0174
       688.3594
 04  9 17 21 15 45.0010000  0  8G 3G 8G13G19G23G27G28G10
   2234361.80049   1734574.67847  23221994.8104   23221992.7004
     -1848.7974
  -2154031.90449  -1675934.80848  22112860.9664   22112857.5994
       955.9534
   3066537.82749   2381029.27148  20765481.5284   20765477.3064
     -2213.3124
  -1772433.28349  -1378645.09447  23021787.2084   23021783.0604
       505.5944
   7102516.66049   5514515.16547  23045758.9744   23045755.3454
     -4213.0474
    -27042.73349    -24104.52548  21341628.5444   21341624.9354
      -189.3754
  -1394799.20449  -1085789.74347  24193870.4114   24193869.5404
      2153.9384
   -361000.15449   -283839.28247  24325656.6774   24325654.8534
       679.7664
 04  9 17 21 16  0.0010000  0  8G 3G 8G13G19G23G27G28G10
   2262171.63449   1756244.67947  23227285.8334   23227284.0174
     -1858.8594
  -2168343.84849  -1687086.95248  22110137.5284   22110134.3994
       952.6254
   3099804.94549   2406951.70248  20771811.9814   20771807.7394
     -2222.0784
  -1779954.47649  -1384505.72447  23020355.4974   23020351.6344
       497.5164
   7165753.65849   5563790.70747  23057792.4274   23057788.7634
     -4218.2504
    -24175.89849    -21870.62248  21342174.2864   21342170.6734
      -192.5784
  -1427078.68049  -1110942.50047  24187728.2314   24187726.7824
      2150.3754
   -371126.50749   -291729.95647  24323729.7784   24323727.1224
       670.7974
 04  9 17 21 16 15.0010000  0  8G 3G 8G13G19G23G27G28G10
   2290126.46049   1778027.65347  23232605.6534   23232603.8454
     -1868.6564
  -2182611.84449  -1698204.85248  22107422.4194   22107419.3764
       949.5634
   3133197.10749   2432971.56548  20778166.3884   20778161.9464
     -2230.4844
  -1787360.77649  -1390276.81047  23018946.2554   23018942.9704
       489.7194
   7229060.75049   5613120.87447  23069839.7474   23069835.7124
     -4223.0164
    -21267.94649    -19604.68148  21342727.3644   21342724.1964
      -195.4064
  -1459309.63349  -1136057.44747  24181594.7944   24181593.3684
      2146.9384
   -381123.86449   -299520.05647  24321826.9744   24321824.9154
       661.9694
 04  9 17 21 16 30.0010000  0  8G 3G 8G13G19G23G27G28G10
   2318228.59749   1799925.44147  23237953.3644   23237951.8644
     -1878.4224
  -2196833.44849  -1709286.59848  22104715.7084   22104712.9544
       946.5784
   3166716.65849   2459090.69348  20784544.9894   20784540.9624
     -2238.8754
  -1794649.50749  -1395956.28947  23017559.4354   23017554.9384
       481.9534
   7292439.97049   5662507.23147  23081900.3804   23081896.1614
     -4227.6874
    -18316.34949    -17304.71948  21343289.2314   21343285.6224
      -198.2664
  -1491489.44549  -1161132.52747  24175471.0604   24175469.6184
      2143.6094
   -390989.71849   -307207.73747  24319950.3804   24319947.9704
       653.2664
 04  9 17 21 16 45.0010000  0  8G 3G 8G13G19G23G27G28G10
   2346476.45649   1821936.77547  23243328.6304   23243327.2314
     -1888.0784
  -2211009.67949  -1720332.99248  22102017.9354   22102015.2314
       943.4694
   3200362.13449   2485307.94748  20790947.4194   20790943.0014
     -2247.4534
  -1801821.87249  -1401545.09147  23016194.3494   23016189.8884
       474.1254
   7355889.74349   5711948.58647  23093974.4114   23093970.7394
     -4232.4844
    -15322.59449    -14971.91548  21343858.7784   21343855.5604
      -201.0784
  -1523619.37849  -1186168.78447  24169356.8564   24169355.5054
      2140.2194
   -400725.24049   -314793.85547  24318098.1464   24318094.4784
       644.6094
 04  9 17 21 17  0.0010000  0  8G 3G 8G13G19G23G27G28G10
   2374872.21749   1844063.34147  23248731.9974   23248730.6424
     -1897.8284
  -2225138.48749  -1731342.43848  22099329.5524   22099326.3924
       940.4224
   3234135.85849   2511625.12948  20797374.2944   20797370.3134
     -2255.6724
  -1808875.27849  -1407041.20647  23014852.2164   23014848.0834
       466.3594
   7419412.08549   5761446.47047  23106062.7554   23106058.3684
     -4237.1094
    -12284.36949    -12604.46948  21344437.0054   21344433.5834
      -203.9224
  -1555697.01049  -1211164.25447  24163252.1304   24163251.1184
      2136.9064
   -410328.07449   -322276.59647  24316270.2004   24316267.9544
       635.8914
 04  9 17 21 17 15.0010000  0  8G 3G 8G13G19G23G27G28G10
   2403414.80349   1866304.32147  23254164.5604   23254162.1534
     -1907.8284
  -2239220.89349  -1742315.72748  22096650.2474   22096646.4464
       937.2504
   3268036.79849   2538041.44148  20803825.4194   20803821.1034
     -2264.3594
  -1815810.51849  -1412445.24047  23013532.4194   23013528.1104
       458.3594
   7483005.93149   5811000.08147  23118163.9664   23118160.0284
     -4242.0474
     -9202.69849    -10203.15748  21345023.1304   21345019.7314
      -206.9534
  -1587723.17849  -1236119.61747  24157157.7634   24157156.4934
      2133.3754
   -419799.09149   -329656.54747  24314467.9034   24314465.5324
       626.9694
 04  9 17 21 17 30.0010000  0  8G 3G 8G13G19G23G27G28G10
   2432107.12549   1888661.98147  23259624.3334   23259621.7714
     -1917.8914
  -2253253.78049  -1753250.42148  22093979.4034   22093976.4464
       933.8444
   3302067.79549   2564559.09648  20810301.0674   20810297.0634
     -2273.1414
  -1822624.28149  -1417754.61347  23012235.4354   23012231.5404
       450.2034
   7546673.98649   5860611.49647  23130279.6614   23130276.0714
     -4247.0784
     -6074.60649     -7765.67448  21345618.6534   21345615.3454
      -210.1564
  -1619694.82649  -1261032.50847  24151074.0674   24151073.0634
      2129.5164
   -429135.04849   -336931.33147  24312690.7164   24312689.0364
       617.8594
 04  9 17 21 17 45.0010000  0  8G 3G 8G13G19G23G27G28G10
   2460945.84449   1911133.72047  23265111.5134   23265109.7514
     -1927.4694
  -2267240.46049  -1764149.11048  22091318.1534   22091315.0994
       930.9224
   3336225.58449   2591175.55248  20816801.1854   20816797.6344
     -2281.4224
  -1829319.65949  -1422971.74847  23010961.5914   23010957.0324
       442.3754
   7610412.63549   5910277.92747  23142408.0754   23142405.4034
     -4251.6254
     -2903.24249     -5294.47548  21346221.8334   21346219.0674
      -212.8284
  -1651614.99149  -1285905.26847  24144999.9114   24144998.8644
      2126.2344
   -438339.04349   -344103.25647  24310938.4664   24310937.1184
       609.1564
 04  9 17 21 18  0.0010000  0  8G 3G 8G13G19G23G27G28G10
   2489931.71349   1933720.12847  23270627.2554   23270625.3174
     -1937.3124
  -2281180.17149  -1775011.20848  22088665.0284   22088662.1064
       927.7814
   3370510.81249   2617891.31348  20823325.4974   20823321.5874
     -2289.9374
  -1835895.68649  -1428095.87047  23009710.1464   23009705.9354
       434.3914
   7674222.43949   5959999.81347  23154552.0444   23154547.3374
     -4256.3914
       312.08249     -2789.01648  21346833.8724   21346830.9704
      -215.8444
  -1683482.78749  -1310737.25847  24138935.7164   24138933.9504
      2122.7814
   -447410.24249   -351171.72047  24309212.6854   24309210.8994
       600.3444
 04  9 17 21 18 15.0010000  0  8G 3G 8G13G19G23G27G28G10
   2519065.28249   1956421.60747  23276171.0754   23276169.2434
     -1947.4694
  -2295072.28349  -1785836.21648  22086021.3104   22086018.7674
       924.3134
   3404924.11549   2644706.86548  20829874.4894   20829870.4464
     -2298.7344
  -1842351.35649  -1433126.22147  23008481.7164   23008477.5134
       426.0634
   7738103.92549   6009777.55247  23166707.3024   23166703.2714
     -4261.3124
      3572.02949      -248.79148  21347454.1854   21347450.9464
      -219.1094
  -1715297.41449  -1335527.79547  24132881.1854   24132879.9544
      2119.0314
   -456347.65049   -358135.91647  24307512.1614   24307509.7204
       591.0004
 04  9 17 21 18 30.0010000  0  8G 3G 8G13G19G23G27G28G10
   2548345.64649   1979237.48747  23281743.6224   23281740.8994
     -1956.7344
  -2308917.58749  -1796624.73848  22083386.6924   22083383.8064
       921.7034
   3439464.75749   2671621.65448  20836447.4504   20836442.9744
     -2306.6724
  -1848687.21449  -1438063.19547  23007276.3964   23007271.5484
       418.6254
   7802056.10549   6059610.38747  23178877.5524   23178873.3964
     -4265.6094
      6875.94649      2325.69548  21348082.8494   21348079.3724
      -221.5004
  -1747059.35749  -1360277.26847  24126836.2784   24126835.4154
      2115.9534
   -465151.86949   -364996.35647  24305837.5524   24305834.4624
       582.6564
 04  9 17 21 18 45.0010000  0  8G 3G 8G13G19G23G27G28G10
   2577770.11049   2002165.65747  23287342.5754   23287341.1424
     -1966.5314
  -2322718.41149  -1807378.61148  22080760.3804   22080757.9234
       918.5164
   3474130.19049   2698633.66948  20843043.6854   20843039.7164
     -2315.2664
  -1854905.45749  -1442908.54547  23006092.8644   23006088.6884
       410.4844
   7866076.25049   6109496.16847  23191059.9424   23191056.0914
     -4270.3594
     10221.30749      4932.47948  21348719.8024   21348716.1104
      -224.4694
  -1778771.06649  -1384987.59547  24120802.7244   24120800.9784
      2112.3914
   -473825.32649   -371754.88547  24304186.7554   24304184.2434
       573.7814
 04  9 17 21 19  0.0010000  0  8G 3G 8G13G19G23G27G28G10
   2607342.02049   2025208.70347  23292969.6384   23292968.1924
     -1976.2974
  -2336471.39149  -1818095.20148  22078143.5134   22078140.4464
       915.3594
   3508923.74249   2725745.52348  20849664.7474   20849660.4664
     -2323.7814
  -1861002.46449  -1447659.40247  23004932.2944   23004928.0404
       402.5004
   7930167.62249   6159437.45847  23203255.9744   23203252.6814
     -4275.0314
     13611.52149      7574.21348  21349364.8334   21349361.2284
      -227.4064
  -1810428.87449  -1409655.94947  24114778.4194   24114776.8414
      2108.7664
   -482364.45549   -378408.74847  24302562.0364   24302559.7474
       564.8284
 04  9 17 21 19 15.0010000  0  8G 3G 8G13G19G23G27G28G10
   2637063.38649   2048368.21647  23298624.9354   23298623.3294
     -1986.2504
  -2350174.49849  -1828772.93248  22075535.7314   22075532.8454
       912.0004
   3543847.44749   2752958.80548  20856310.2714   20856306.3334
     -2332.5164
  -1866975.93249  -1452314.00147  23003795.7004   23003791.3454
       394.2034
   7994331.85549   6209435.52347  23215465.9584   23215461.8884
     -4279.8914
     17048.60249     10252.47048  21350018.8024   21350014.9354
      -230.5784
  -1842030.75249  -1434280.69747  24108764.7634   24108763.0524
      2105.0784
   -490767.06249   -384956.19047  24300962.4894   24300961.0914
       555.6564
 04  9 17 21 19 30.0010000  0  8G 3G 8G13G19G23G27G28G10
   2666927.63549   2071639.07847  23304308.4114   23304306.6304
     -1995.8594
  -2363833.90449  -1839416.59448  22072936.8964   22072933.3994
       909.0634
   3578894.72649   2780268.36448  20862979.5834   20862975.8964
     -2340.7344
  -1872831.98049  -1456877.11647  23002681.1854   23002676.9854
       386.3914
   8058562.43149   6259485.27347  23227689.3724   23227684.9314
     -4284.4374
     20526.19049     12962.28448  21350680.5604   21350677.3924
      -233.2974
  -1873582.84649  -1458866.66047  24102759.8964   24102758.7044
      2101.6564
   -499039.31649   -391402.11847  24299388.6304   24299387.3924
       547.0164
 04  9 17 21 19 45.0010000  0  8G 3G 8G13G19G23G27G28G10
   2696940.07249   2095025.40447  23310020.4354   23310017.9504
     -2005.9064
  -2377444.38349  -1850022.14948  22070346.7394   22070343.4194
       905.6414
   3614071.11949   2807678.54348  20869673.2554   20869669.7554
     -2349.5004
  -1878564.99449  -1461344.35747  23001590.4194   23001586.0324
       377.9844
   8122864.51649   6309590.77947  23239925.4274   23239921.3804
     -4289.3124
     24049.73449     15707.91348  21351350.9894   21351347.4384
      -236.5784
  -1905079.55649  -1483409.49547  24096766.4744   24096765.0914
      2097.7974
   -507175.54849   -397742.03647  24297839.8254   24297838.2314
       537.7194
 04  9 17 21 20  0.0010000  0  8G 3G 8G13G19G23G27G28G10
   2727101.17049   2118527.57247  23315758.5914   23315757.3294
     -2015.7814
  -2391005.36449  -1860589.13948  22067766.0674   22067762.5094
       902.3754
   3649376.99049   2835189.60148  20876392.1384   20876388.2434
     -2358.1254
  -1884174.23549  -1465715.15447  23000522.8804   23000518.0914
       369.7034
   8187238.44549   6359752.21647  23252175.9034   23252171.5834
     -4294.1564
     27619.76349     18489.76148  21352030.4034   21352026.6964
      -239.6254
  -1936520.31949  -1507908.72347  24090783.5674   24090781.9814
      2094.1094
   -515175.25349   -403975.56547  24296318.1614   24296316.4234
       528.6564
 04  9 17 21 20 15.0010000  0  8G 3G 8G13G19G23G27G28G10
   2757406.62949   2142142.23947  23321525.5054   23321524.3964
     -2025.2194
  -2404520.97249  -1871120.75848  22065193.9894   22065191.0054
       899.4844
   3684808.24149   2862798.36648  20883134.3174   20883130.5214
     -2366.3754
  -1889663.65649  -1469992.58547  22999478.1064   22999473.5094
       361.8914
   8251679.92749   6409966.31247  23264438.1384   23264434.2084
     -4298.4534
     31232.16749     21304.64048  21352717.8254   21352714.4034
      -242.3594
  -1967908.97349  -1532367.34247  24084810.5054   24084809.2984
      2090.7194
   -523042.37349   -410105.77347  24294820.7474   24294818.3804
       519.9534
 04  9 17 21 20 30.0010000  0  8G 3G 8G13G19G23G27G28G10
   2787860.45449   2165872.49747  23327321.4034   23327319.3924
     -2035.2504
  -2417987.17849  -1881613.89048  22062631.3494   22062628.3724
       896.1414
   3720368.79049   2890507.88048  20889901.3254   20889897.0444
     -2375.0474
  -1895028.77849  -1474173.15347  22998457.5054   22998452.1224
       353.5004
   8316192.72849   6460235.98247  23276714.6614   23276710.7554
     -4303.2194
     34891.05749     24155.72548  21353414.0674   21353410.9744
      -245.4224
  -1999241.32949  -1556782.07247  24078848.2084   24078846.8724
      2086.9694
   -530772.66849   -416129.37747  24293350.0604   24293347.7864
       510.8444
 04  9 17 21 20 45.0010000  0  8G 3G 8G13G19G23G27G28G10
   2818462.51749   2189718.26947  23333144.7004   23333142.6304
     -2044.8754
  -2431403.85949  -1892068.43248  22060077.8564   22060075.2784
       892.9224
   3756058.48649   2918318.02748  20896692.9814   20896689.0794
     -2383.4534
  -1900269.60349  -1478256.85947  22997459.7394   22997455.5014
       345.4384
   8380776.54349   6510560.97447  23289004.5284   23289001.0014
     -4307.7974
     38596.33049     27042.95648  21354119.0524   21354115.6854
      -248.4534
  -2030517.33849  -1581152.90747  24072896.3964   24072894.9854
      2083.3134
   -538366.04049   -422046.29547  24291905.7164   24291902.7714
       501.7974
 04  9 17 21 21  0.0010000  0  8G 3G 8G13G19G23G27G28G10
   2849208.94449   2213676.53647  23338995.7784   23338993.3764
     -2054.7504
  -2444774.61549  -1902487.19848  22057533.8334   22057530.8964
       889.6884
   3791873.83049   2946226.08448  20903508.4354   20903504.2004
     -2392.0314
  -1905389.45549  -1482246.31948  22996485.6924   22996481.0874
       337.0164
   8445427.44149   6560938.24147  23301306.8024   23301303.5364
     -4312.4694
     42344.38149     29963.51648  21354832.5524   21354828.8644
      -251.5164
  -2061740.38349  -1605482.49347  24066954.4584   24066953.1924
      2079.5784
   -545826.05149   -427859.27047  24290485.3104   24290483.1184
       492.6884
 04  9 17 21 21 15.0010000  0  8G 3G 8G13G19G23G27G28G10
   2880102.25149   2237749.24947  23344874.5214   23344872.3174
     -2064.4694
  -2458097.04149  -1912868.28948  22054998.6224   22054995.6814
       886.6884
   3827817.29149   2974233.96648  20910348.3334   20910344.2004
     -2400.4064
  -1910385.50549  -1486139.30848  22995534.7474   22995530.0564
       329.0314
   8510147.83249   6611369.68047  23313623.3724   23313619.5284
     -4316.9064
     46137.89049     32919.51048  21355554.1144   21355550.8644
      -254.3444
  -2092907.85649  -1629768.76147  24061023.4814   24061021.9274
      2076.0164
   -553149.88149   -433566.13747  24289091.6924   24289089.4704
       483.7034
 04  9 17 21 21 30.0010000  0  8G 3G 8G13G19G23G27G28G10
   2911137.49549   2261932.58147  23350780.0914   23350778.2124
     -2073.7504
  -2471375.80949  -1923215.36448  22052472.0994   22052468.8684
       883.7974
   3863883.82149   3002337.75648  20917211.5994   20917207.4624
     -2408.5474
  -1915262.40949  -1489939.45048  22994606.4354   22994602.0994
       321.1414
   8574932.72949   6661851.37947  23325951.2944   23325947.4894
     -4321.1414
     49971.85649     35907.01848  21356283.9504   21356280.4974
      -257.0004
  -2124024.37549  -1654015.32447  24055102.4974   24055100.7244
      2072.6884
   -560342.15249   -439170.50247  24287722.8644   24287720.3534
       474.9694
 04  9 17 21 21 45.0010000  0  8G 3G 8G13G19G23G27G28G10
   2942317.73549   2286228.87947  23356713.4274   23356711.8534
     -2083.4064
  -2484607.82849  -1933526.01448  22049953.8494   22049951.0484
       880.7034
   3900076.51949   3030539.86148  20924098.6064   20924094.7204
     -2416.9064
  -1920016.68549  -1493644.03347  22993702.5444   22993697.7284
       312.9384
   8639785.00349   6712385.57947  23338292.1614   23338288.5484
     -4325.6874
     53849.61549     38928.66248  21357021.7314   21357018.4704
      -259.8444
  -2155086.61549  -1678219.58947  24049190.8564   24049189.6694
      2069.0634
   -567399.57149   -444669.80247  24286380.0214   24286377.9744
       466.1094
 04  9 17 21 22  0.0010000  0  8G 3G 8G13G19G23G27G28G10
   2973645.68949   2310640.29847  23362674.5054   23362673.2904
     -2093.5004
  -2497790.15549  -1943797.94448  22047445.6464   22047442.5754
       877.0784
   3936398.27049   3058842.51548  20931010.8334   20931006.7594
     -2425.7974
  -1924645.11649  -1497250.57047  22992821.2244   22992816.9274
       304.2344
   8704707.32849   6762974.35347  23350646.5284   23350642.5444
     -4330.5474
     57774.06849     41986.67648  21357768.3804   21357765.2044
      -263.2344
  -2186091.58149  -1702379.23647  24043291.1464   24043289.7004
      2064.9694
   -574319.13049   -450061.66346  24285063.6534   24285060.6384
       456.7344
 04  9 17 21 22 15.0010000  0  8G 3G 8G13G19G23G27G28G10
   3005118.77649   2335164.79647  23368663.8414   23368662.1064
     -2102.9374
  -2510925.03949  -1954032.90848  22044946.0134   22044942.6694
       874.1094
   3972846.55049   3087243.77548  20937946.8174   20937942.6264
     -2434.0784
  -1929150.11149  -1500760.91448  22991963.9354   22991959.9784
       296.3284
   8769697.00249   6813615.61247  23363013.5214   23363009.5674
     -4334.8284
     61742.68349     45079.10948  21358523.7554   21358520.4464
      -266.0314
  -2217041.55249  -1726496.02147  24037400.8804   24037399.9624
      2061.5164
   -581103.13249   -455347.87447  24283772.0444   24283769.7824
       447.7814
 04  9 17 21 22 30.0010000  0  8G 3G 8G13G19G23G27G28G10
   3036737.09049   2359802.45447  23374681.1144   23374678.5284
     -2112.7344
  -2524012.51949  -1964230.93048  22042455.5444   22042452.3024
       870.8754
   4009421.47149   3115743.70948  20944906.5134   20944902.7354
     -2442.6414
  -1933531.17749  -1504174.69047  22991130.2634   22991125.4744
       287.8134
   8834753.89749   6864309.25647  23375393.7714   23375390.2744
     -4339.4374
     65755.65249     48206.11248  21359287.4664   21359284.1734
      -269.1414
  -2247936.15649  -1750569.70047  24031522.2714   24031520.5994
      2057.6564
   -587751.27149   -460528.23447  24282507.8644   24282505.2784
       438.5314
 04  9 17 21 22 45.0010000  0  8G 3G 8G13G19G23G27G28G10
   3068501.24449   2384553.74547  23380725.2164   23380723.5094
     -2122.5004
  -2537051.69749  -1974391.31048  22039974.4274   22039971.3604
       867.6724
   4046123.79149   3144342.92048  20951890.6774   20951886.7984
     -2451.0944
  -1937787.27349  -1507491.09047  22990320.2554   22990315.3374
       279.5164
   8899878.67749   6915055.76647  23387786.7004   23387782.6854
     -4344.0004
     69813.86749     51368.35448  21360059.9504   21360056.6534
      -272.1254
  -2278774.61949  -1774599.60547  24025654.1144   24025652.1574
      2054.0474
   -594262.68149   -465602.07047  24281267.9974   24281266.1884
       429.4224
 04  9 17 21 23  0.0010000  0  8G 3G 8G13G19G23G27G28G10
   3100409.34749   2409417.21747  23386796.6304   23386794.6654
     -2131.8594
  -2550044.29049  -1984515.39848  22037501.6304   22037498.4894
       864.8754
   4082951.65149   3173039.94948  20958898.8414   20958894.5094
     -2459.1094
  -1941920.10549  -1510711.44247  22989533.9664   22989529.0674
       271.7034
   8965069.36349   6965853.67447  23400191.5284   23400188.4274
     -4347.9374
     73915.56849     54564.49548  21360840.4034   21360836.5914
      -274.6724
  -2309558.36749  -1798586.86747  24019796.2554   24019794.6964
      2050.7194
   -600638.84249   -470570.49847  24280055.0674   24280052.3134
       420.8134
 04  9 17 21 23 15.0010000  0  8G 3G 8G13G19G23G27G28G10
   3132459.01549   2434390.99047  23392895.7314   23392893.5634
     -2141.3284
  -2562992.48249  -1994604.88948  22035038.1924   22035034.3414
       861.6724
   4119902.83549   3201833.08248  20965930.6304   20965926.2944
     -2467.5944
  -1945931.49249  -1513837.15147  22988770.4274   22988765.8924
       263.3134
   9030323.51549   7016701.01047  23412609.3494   23412605.8644
     -4352.4064
     78058.52849     57792.79248  21361628.4194   21361624.8414
      -277.6414
  -2340289.49449  -1822533.12647  24013947.9974   24013946.2354
      2046.9064
   -606881.89849   -475435.23447  24278867.0134   24278864.6034
       411.7814
 04  9 17 21 23 30.0010000  0  8G 3G 8G13G19G23G27G28G10
   3164654.81249   2459478.63847  23399022.7244   23399020.3994
     -2151.1564
  -2575891.60549  -2004656.13248  22032583.0444   22032579.7674
       858.4384
   4156981.90049   3230725.84948  20972986.6304   20972981.8564
     -2476.0314
  -1949816.57749  -1516864.46047  22988031.3174   22988026.8884
       254.9694
   9095645.40249   7067601.13447  23425039.9114   23425036.5054
     -4356.9224
     82247.39649     61056.84848  21362425.4814   21362422.2554
      -280.6254
  -2370963.22949  -1846434.67247  24008111.0054   24008108.2314
      2043.2034
   -612987.05849   -480192.49947  24277705.1384   24277702.7784
       402.6094
 04  9 17 21 23 45.0010000  0  8G 3G 8G13G19G23G27G28G10
   3196990.37249   2484675.18747  23405176.1144   23405173.5054
     -2160.7034
  -2588748.00849  -2014674.09748  22030136.7554   22030133.4544
       855.3284
   4194182.40149   3259713.25048  20980065.1384   20980061.3454
     -2484.4844
  -1953581.42049  -1519798.06647  22987315.1384   22987309.7714
       246.6884
   9161028.65749   7118549.05347  23437481.8804   23437478.3294
     -4361.2664
     86476.08949     64351.93048  21363230.4744   21363227.1464
      -283.5624
  -2401585.81449  -1870296.37147  24002283.8564   24002281.5794
      2039.4384
   -618960.49849   -484847.05247  24276567.7864   24276566.0174
       393.4534
 04  9 17 21 24  0.0010000  0  8G 3G 8G13G19G23G27G28G10
   3229471.98649   2509985.54547  23411357.2474   23411354.8564
     -2170.3124
  -2601554.88449  -2024653.47748  22027699.6534   22027696.3214
       852.1254
   4231510.81949   3288800.32548  20987168.7634   20987164.5794
     -2492.8284
  -1957219.42249  -1522632.83348  22986622.3104   22986618.3254
       238.2974
   9226479.39749   7169549.58147  23449936.6534   23449933.3844
     -4365.6254
     90750.76349     67682.85848  21364043.8024   21364040.3764
      -286.5474
  -2432150.63049  -1894113.04447  23996467.5524   23996465.4194
      2035.6884
   -624795.49349   -489393.83547  24275457.7864   24275454.9814
       384.4064
 04  9 17 21 24 15.0010000  0  8G 3G 8G13G19G23G27G28G10
   3262096.87649   2535407.55047  23417566.1464   23417563.4814
     -2179.7194
  -2614315.01249  -2034596.41948  22025271.3724   22025268.4504
       849.1884
   4268964.38449   3317984.92048  20994295.8104   20994291.9274
     -2500.9534
  -1960732.92149  -1525370.59048  22985953.7394   22985949.5834
       230.1414
   9291994.78949   7220600.48947  23462403.5524   23462400.4584
     -4369.7974
     95069.08249     71047.78248  21364865.3644   21364862.0214
      -289.2974
  -2462660.01249  -1917886.52447  23990660.7864   23990659.7904
      2032.1564
   -630494.62549   -493834.71247  24274372.5364   24274370.7354
       375.5634
 04  9 17 21 24 30.0010000  0  8G 3G 8G13G19G23G27G28G10
   3294864.64049   2560940.86847  23423800.8884   23423799.2354
     -2189.2344
  -2627028.77149  -2044503.22948  22022852.3024   22022848.6854
       846.0634
   4306542.77449   3347266.78248  21001446.8724   21001442.3374
     -2509.2974
  -1964121.95449  -1528011.36247  22985308.6304   22985303.8994
       221.7664
   9357574.39349   7271701.41847  23474883.9424   23474880.1924
     -4374.0784
     99430.53349     74446.32448  21365695.1384   21365692.0524
      -292.1414
  -2493114.24849  -1941617.01747  23984866.5674   23984864.5564
      2028.4694
   -636058.02349   -498169.78847  24273314.4814   24273312.1104
       366.3444
 04  9 17 21 24 45.0010000  0  8G 3G 8G13G19G23G27G28G10
   3327776.43049   2586586.43347  23430063.4744   23430061.7744
     -2198.9694
  -2639694.94349  -2054372.95848  22020441.4114   22020438.9544
       842.7974
   4344247.18449   3376646.82848  21008621.7554   21008617.6104
     -2517.8444
  -1967385.15549  -1530554.07548  22984687.3884   22984683.8214
       213.3914
   9423219.14049   7322853.11947  23487375.8104   23487371.8134
     -4378.5004
    103836.61649     77879.63348  21366534.0834   21366530.3844
      -295.2814
  -2523511.83149  -1965303.39047  23979081.5134   23979079.6184
      2024.5944
   -641484.40649   -502398.13547  24272282.0134   24272279.5994
       357.1254
 04  9 17 21 25  0.0010000  0  8G 3G 8G13G19G23G27G28G10
   3360833.39549   2612345.11347  23436354.3644   23436352.5954
     -2208.4224
  -2652312.01149  -2064204.43048  22018040.6924   22018038.0054
       839.6094
   4382078.80749   3406126.00848  21015820.9354   21015817.0174
     -2526.2194
  -1970520.86949  -1532997.46147  22984090.9974   22984085.9114
       204.8914
   9488930.23049   7374056.50647  23499879.5754   23499876.2784
     -4382.7974
    108288.57649     81348.70148  21367381.5054   21367377.7204
      -298.2194
  -2553851.30149  -1988944.46447  23973308.3804   23973305.7554
      2020.7814
   -646772.22149   -506518.53647  24271275.6304   24271273.7474
       348.1094
 04  9 17 21 25 15.0010000  0  8G 3G 8G13G19G23G27G28G10
   3394031.16749   2638213.50547  23442671.5994   23442669.9274
     -2218.2034
  -2664884.32349  -2074001.01848  22015648.0214   22015644.9624
       836.2814
   4420033.43149   3435701.04148  21023043.3334   21023039.0174
     -2534.6724
  -1973533.16149  -1535344.66948  22983518.2084   22983513.5324
       196.4384
   9554703.08249   7425308.01147  23512395.6614   23512391.9584
     -4387.2504
    112782.25749     84850.26948  21368236.1224   21368232.5244
      -301.2814
  -2584136.82949  -2012543.49747  23967545.1614   23967542.7784
      2016.9064
   -651925.58849   -510534.12447  24270295.5674   24270293.0404
       338.6884
 04  9 17 21 25 30.0010000  0  8G 3G 8G13G19G23G27G28G10
   3427372.72749   2664193.94847  23449016.6384   23449014.4934
     -2227.5474
  -2677408.79549  -2083760.34048  22013264.8334   22013261.5954
       833.3444
   4458113.97349   3465374.18348  21030290.2084   21030286.0094
     -2542.8914
  -1976418.64249  -1537593.06448  22982968.3884   22982964.6304
       188.1414
   9620540.56149   7476609.90047  23524924.4274   23524920.2744
     -4391.3594
    117320.71049     88386.72548  21369099.9114   21369096.4854
      -304.0944
  -2614365.05949  -2036097.91047  23961793.0834   23961791.0954
      2013.2974
   -656941.21549   -514442.40147  24269341.2004   24269338.9464
       329.8134
 04  9 17 21 25 45.0010000  0  8G 3G 8G13G19G23G27G28G10
   3460858.43449   2690286.71247  23455388.3964   23455386.5364
     -2237.1414
  -2689884.74449  -2093481.84948  22010890.7244   22010887.5874
       830.1884
   4496320.96349   3495145.86248  21037560.5134   21037556.4894
     -2551.3444
  -1979176.53149  -1539742.02947  22982443.9814   22982439.3804
       179.6414
   9686443.08949   7527962.48347  23537465.5214   23537461.2164
     -4395.6414
    121904.52949     91958.54648  21369972.1064   21369968.6774
      -307.0004
  -2644535.35349  -2059607.13447  23956051.0914   23956050.0874
      2009.5004
   -661818.48249   -518242.88247  24268412.8414   24268410.3724
       320.5944
 04  9 17 21 26  0.0010000  0  8G 3G 8G13G19G23G27G28G10
   3494489.14449   2716492.47047  23461788.1694   23461785.9624
     -2246.7664
  -2702311.03049  -2103164.66148  22008526.2944   22008522.7084
       826.7814
   4534655.18649   3525016.67448  21044855.0284   21044850.6614
     -2559.8124
  -1981805.83649  -1541790.81748  22981943.7864   22981940.0634
       171.0164
   9752411.27649   7579366.20247  23550018.8884   23550015.1964
     -4400.0164
    126534.69749     95566.46948  21370852.9894   21370849.6854
      -310.1564
  -2674646.57449  -2083070.35447  23950321.5674   23950319.2244
      2005.5474
   -666556.36449   -521934.74347  24267511.1464   24267508.2594
       311.2974
 04  9 17 21 26 15.0010000  0  8G 3G 8G13G19G23G27G28G10
   3528262.74149   2742809.55947  23468215.3564   23468212.2744
     -2256.4224
  -2714689.76449  -2112810.41348  22006170.9424   22006167.4854
       823.6414
   4573114.57649   3554985.03148  21052173.7864   21052169.6144
     -2568.1564
  -1984308.18849  -1543740.67748  22981467.2944   22981462.5524
       162.5634
   9818442.99249   7630819.44647  23562584.3804   23562580.4664
     -4404.2504
    131209.27949     99209.00148  21371742.8024   21371739.0994
      -313.2034
  -2704700.65249  -2106489.03847  23944601.7554   23944600.4664
      2001.6414
   -671156.54449   -525519.29547  24266635.8414   24266633.4934
       302.0944
 04  9 17 21 26 30.0010000  0  8G 3G 8G13G19G23G27G28G10
   3562179.08049   2769237.87447  23474669.2244   23474666.4154
     -2265.7034
  -2727020.87249  -2122419.05548  22003823.8104   22003820.7824
       820.6564
   4611699.22949   3585050.99048  21059516.0914   21059511.8804
     -2576.3284
  -1986683.38749  -1545591.44848  22981015.7084   22981011.1034
       154.2504
   9884537.99649   7682321.97747  23575161.1694   23575157.9664
     -4408.2344
    135928.35549    102886.21148  21372640.7314   21372637.4274
      -315.9694
  -2734697.32249  -2129863.00247  23938894.7164   23938892.0954
      1997.9694
   -675618.97849   -528996.49747  24265786.4974   24265784.3104
       293.0634
 04  9 17 21 26 45.0020000  0  8G 3G 8G13G19G23G27G28G10
   3596238.80349   2795777.91747  23481150.5644   23481148.2294
     -2275.2344
  -2739306.43949  -2131992.21148  22001486.3854   22001483.4084
       817.4224
   4650410.41349   3615215.54848  21066882.8614   21066878.6544
     -2584.7194
  -1988932.74849  -1547344.16948  22980586.8614   22980583.0104
       145.7194
   9950699.01249   7733875.95247  23587751.7294   23587748.5884
     -4412.5314
    140690.81649    106597.23248  21373547.1824   21373543.7524
      -318.9224
  -2764639.77649  -2153194.71247  23933196.2294   23933194.6314
      1994.1884
   -679945.25549   -532367.60247  24264963.3464   24264961.1934
       283.9224
 04  9 17 21 27  0.0020000  0  8G 3G 8G13G19G23G27G28G10
   3630437.65449   2822426.38547  23487658.6434   23487655.5924
     -2284.7344
  -2751544.50349  -2141528.35548  21999157.4474   21999153.8964
       814.2034
   4689242.88649   3645474.60548  21074272.4554   21074268.1354
     -2593.1094
  -1991055.43049  -1548998.18148  22980183.1114   22980178.6464
       137.1564
  10016917.21849   7785474.49847  23600352.4244   23600349.3614
     -4416.7034
    145496.36849    110341.81848  21374461.3224   21374458.0804
      -321.9224
  -2794523.64249  -2176480.75547  23927509.9084   23927507.7324
      1990.2814
   -684134.33549   -535631.81847  24264166.1194   24264164.1504
       274.5784
 04  9 17 21 27 15.0020000  0  8G 3G 8G13G19G23G27G28G10
   3664780.52049   2849187.04447  23494193.3934   23494191.2524
     -2294.2814
  -2763733.50049  -2151026.26548  21996837.8934   21996834.7954
       811.0164
   4728201.80649   3675832.19348  21081685.5964   21081681.3854
     -2601.3914
  -1993048.73949  -1550551.37948  22979803.9714   22979799.5494
       128.6414
  10083199.77349   7837123.19047  23612965.8854   23612962.7644
     -4420.8444
    150348.00449    114122.30648  21375384.7294   21375381.3464
      -324.9374
  -2824348.06049  -2199720.48947  23921833.9164   23921832.1394
      1986.3594
   -688183.69449   -538787.17147  24263396.0334   24263392.6864
       265.3444
 04  9 17 21 27 30.0020000  0  8G 3G 8G13G19G23G27G28G10
   3699260.75649   2876054.76047  23500754.9244   23500752.5534
     -2303.4374
  -2775879.55249  -2160490.71148  21994526.5494   21994523.0614
       808.0474
   4767280.91549   3706283.44748  21089122.4164   21089118.3264
     -2609.5004
  -1994918.75849  -1552008.52248  22979448.1664   22979443.2564
       120.3754
  10149539.90749   7888816.74047  23625590.2834   23625586.9364
     -4424.8444
    155239.45249    117933.83448  21376315.3614   21376312.2484
      -327.6254
  -2854119.33649  -2222918.80547  23916168.6354   23916166.3424
      1982.7814
   -692099.53849   -541838.48347  24262650.5804   24262647.3734
       256.3444
 04  9 17 21 27 45.0020000  0  8G 3G 8G13G19G23G27G28G10
   3733883.85849   2903033.81847  23507342.6744   23507341.7524
     -2313.1724
  -2787976.97949  -2169917.25248  21992224.3074   21992221.2794
       804.6564
   4806485.70349   3736832.63048  21096582.8074   21096578.4124
     -2618.0314
  -1996659.62249  -1553365.00647  22979116.4244   22979111.8184
       111.5784
  10215943.06649   7940559.38947  23638226.3934   23638222.6434
     -4429.1724
    160176.43249    121780.84048  21377254.8614   21377251.4634
      -330.8594
  -2883831.63549  -2246071.17847  23910514.9474   23910512.3734
      1978.6724
   -695876.13749   -544781.28147  24261931.7214   24261929.5724
       246.9384
 04  9 17 21 28  0.0020000  0  8G 3G 8G13G19G23G27G28G10
   3768653.47249   2930127.02647  23513959.3224   23513957.9124
     -2322.6874
  -2800021.74049  -2179302.76448  21989932.4394   21989929.1044
       801.4384
   4845819.90749   3767482.64748  21104067.6434   21104063.5454
     -2626.3754
  -1998267.23349  -1554617.66548  22978810.6894   22978806.2644
       102.9534
  10282412.76549   7992353.89647  23650875.0334   23650871.3894
     -4433.3284
    165162.68549    125666.23348  21378203.8384   21378200.3304
      -333.7974
  -2913480.89249  -2269174.42847  23904872.5494   23904870.7874
      1974.7344
   -699509.45449   -547612.43647  24261240.7134   24261237.6544
       237.7194
 04  9 17 21 28 15.0020000  0  8G 3G 8G13G19G23G27G28G10
   3803561.56249   2957328.12347  23520602.4634   23520600.5024
     -2331.7974
  -2812021.68649  -2188653.36248  21987648.8854   21987645.8384
       798.5004
   4885275.61049   3798227.34248  21111576.2604   21111571.9794
     -2634.4224
  -1999749.37549  -1555772.56147  22978528.4004   22978523.7254
        94.5784
  10348940.92249   8044193.95847  23663535.0724   23663531.9864
     -4437.2194
    170190.55449    129584.05548  21379160.6824   21379157.2604
      -336.6094
  -2943074.97149  -2292234.67147  23899241.0104   23899238.9244
      1971.1094
   -703007.46049   -550338.14147  24260574.4474   24260572.2294
       228.7034
 04  9 17 21 28 30.0020000  0  8G 3G 8G13G19G23G27G28G10
   3838609.06449   2984637.86247  23527271.8384   23527269.8034
     -2341.4374
  -2823975.88449  -2197968.30448  21985374.2134   21985371.2014
       795.1724
   4924853.55749   3829067.29848  21119107.5574   21119103.7014
     -2642.8284
  -2001104.81749  -1556828.71847  22978270.9474   22978266.1664
        85.9224
  10415528.36249   8096080.21747  23676206.1354   23676203.0024
     -4441.4534
    175260.86549    133534.94248  21380125.1114   21380121.6234
      -339.6564
  -2972612.71149  -2315251.01247  23893619.9864   23893617.8344
      1967.0164
   -706368.79349   -552957.35847  24259934.9714   24259932.6154
       219.1724
 04  9 17 21 28 45.0020000  0  8G 3G 8G13G19G23G27G28G10
   3873797.41449   3012057.36147  23533968.2604   23533965.5374
     -2350.6724
  -2835882.63249  -2207246.27948  21983108.1824   21983105.1864
       792.0944
   4964555.41149   3860003.80548  21126662.5644   21126658.4164
     -2651.0474
  -2002331.75549  -1557784.74747  22978036.8144   22978032.8144
        77.3444
  10482176.44349   8148013.72647  23688888.9394   23688885.8264
     -4445.3284
    180375.41849    137520.32648  21381098.7994   21381095.5254
      -342.5944
  -3002092.30749  -2338222.04747  23888010.2524   23888007.9984
      1963.2664
   -709591.85749   -555468.83247  24259321.7914   24259319.0804
       210.0944
 04  9 17 21 29  0.0020000  0  8G 3G 8G13G19G23G27G28G10
   3909125.32549   3039585.58847  23540691.1194   23540688.2644
     -2359.9374
  -2847743.11149  -2216488.20248  21980851.2684   21980848.2874
       789.1094
   5004379.99249   3891035.92848  21134240.9004   21134236.9044
     -2659.1414
  -2003431.09949  -1558641.35748  22977827.8854   22977823.1434
        68.9844
  10548883.82349   8199993.44847  23701583.2134   23701579.7484
     -4449.1094
    185533.08649    141539.28548  21382080.1744   21382076.7834
      -345.3444
  -3031514.63349  -2361148.47547  23882411.3694   23882408.4004
      1959.5004
   -712677.50449   -557873.23747  24258734.9004   24258731.5964
       201.1564
 04  9 17 21 29 15.0020000  0  8G 3G 8G13G19G23G27G28G10
   3944592.12549   3067222.05947  23547439.5884   23547437.6464
     -2369.3284
  -2859557.73749  -2225694.39548  21978603.0254   21978599.8304
       785.9844
   5044326.82149   3922163.33148  21141842.3074   21141838.2834
     -2667.3754
  -2004403.06549  -1559398.71247  22977643.1504   22977638.3654
        60.3134
  10615649.76649   8252018.78947  23714287.4634   23714284.9044
     -4453.1874
    190733.42149    145591.49348  21383069.7054   21383066.3034
      -348.2814
  -3060880.13749  -2384030.60447  23876823.1274   23876820.9164
      1955.6254
   -715626.21749   -560170.89347  24258172.9864   24258170.8184
       191.7664
 04  9 17 21 29 30.0020000  0  8G 3G 8G13G19G23G27G28G10
   3980201.46649   3094969.59347  23554216.4634   23554214.0764
     -2378.7664
  -2871322.70549  -2234861.88248  21976364.0804   21976361.1664
       782.5944
   5084399.54649   3953388.81748  21149468.0574   21149464.4394
     -2675.7664
  -2005243.61049  -1560053.67047  22977483.1974   22977478.7054
        51.5164
  10682477.87149   8304092.58747  23727004.5964   23727001.3734
     -4457.3444
    195980.36149    149680.02348  21384068.2444   21384064.7014
      -351.4694
  -3090184.70749  -2406865.26847  23871245.8934   23871244.7994
      1951.5944
   -718433.99849   -562358.79147  24257639.0254   24257637.1314
       182.4064
 04  9 17 21 29 45.0020000  0  8G 3G 8G13G19G23G27G28G10
   4015953.81849   3122828.55947  23561019.1434   23561016.9714
     -2387.7504
  -2883037.42049  -2243990.22248  21974135.1194   21974132.2054
       779.8754
   5124598.53349   3984712.68848  21157117.8934   21157113.5374
     -2683.5944
  -2005952.12849  -1560605.73547  22977348.3614   22977343.6544
        43.3594
  10749368.43049   8356215.04147  23739733.6824   23739730.7054
     -4460.8754
    201274.21149    153805.10248  21385075.5574   21385071.9004
      -354.0004
  -3119427.88349  -2429652.07447  23865681.5184   23865679.4944
      1948.0784
   -721100.30349   -564436.43147  24257132.4634   24257129.6074
       173.6094
 04  9 17 21 30  0.0020000  0  8G 3G 8G13G19G23G27G28G10
   4051842.71049   3150793.93747  23567848.6824   23567846.8734
     -2397.2664
  -2894707.98149  -2253084.15348  21971914.0104   21971911.0254
       776.5474
   5164917.38549   4016129.98248  21164789.8934   21164786.2484
     -2691.9844
  -2006534.59049  -1561059.57848  22977237.6504   22977232.5844
        34.5474
  10816314.85949   8408381.02447  23752473.7684   23752470.4124
     -4464.9224
    206608.91949    157962.02448  21386090.8074   21386087.0024
      -357.0784
  -3148615.77449  -2452395.79347  23860126.7444   23860124.9754
      1943.9534
   -723631.24949   -566408.59647  24256649.7914   24256647.7524
       164.0944
 04  9 17 21 30 15.0020000  0  8G 3G 8G13G19G23G27G28G10
   4087870.36449   3178867.41447  23574704.5254   23574702.8224
     -2406.4534
  -2906332.22749  -2262142.00048  21969701.9554   21969698.8894
       773.3754
   5205358.51949   4047642.53948  21172485.9324   21172481.5494
     -2700.1724
  -2006988.46749  -1561413.22948  22977150.9164   22977146.4044
        25.9384
  10883319.38049   8460592.27147  23765223.2294   23765221.0614
     -4468.8594
    211986.82849    162152.60248  21387114.2054   21387110.6544
      -359.9534
  -3177745.79049  -2475094.44647  23854584.5334   23854581.4864
      1940.0784
   -726024.37549   -568273.37247  24256194.8694   24256191.9244
       154.9844
 04  9 17 21 30 30.0020000  0  8G 3G 8G13G19G23G27G28G10
   4124040.11949   3207051.64747  23581587.8934   23581585.5764
     -2416.0624
  -2917906.50549  -2271160.90248  21967499.4864   21967496.4124
       769.8134
   5245925.29849   4079253.00448  21180204.9864   21180201.0764
     -2708.6724
  -2007310.01549  -1561663.76447  22977089.6894   22977085.4394
        16.9694
  10950385.20549   8512851.29747  23777986.7054   23777983.8184
     -4473.1254
    217411.58249    166379.68148  21388146.4634   21388143.0104
      -363.2344
  -3206814.30249  -2497745.15747  23849051.6894   23849049.7444
      1935.8284
   -728275.91249   -570027.79447  24255766.0884   24255763.8074
       145.3594
 04  9 17 21 30 45.0020000  0  8G 3G 8G13G19G23G27G28G10
   4160351.17349   3235345.96847  23588497.1974   23588495.1154
     -2425.1254
  -2929431.31549  -2280141.26248  21965306.3614   21965303.1194
       766.9534
   5286617.01249   4110960.82848  21187948.6114   21187944.6624
     -2716.5944
  -2007499.59049  -1561811.47547  22977053.4554   22977049.1044
         8.4844
  11017511.58249   8565157.47047  23790760.7754   23790757.4474
     -4476.8594
    222882.56349    170642.78948  21389187.3934   21389184.1114
      -366.0474
  -3235821.77549  -2520348.30947  23843532.0574   23843530.5104
      1932.1254
   -730386.37449   -571672.32247  24255364.6434   24255362.1434
       136.2974
 04  9 17 21 31  0.0020000  0  8G 3G 8G13G19G23G27G28G10
   4196800.16249   3263747.77347  23595433.4474   23595431.7094
     -2434.3914
  -2940909.76249  -2289085.49848  21963122.3224   21963119.4824
       763.9384
   5327430.31549   4142763.39048  21195715.2524   21195711.2484
     -2724.7814
  -2007560.21349  -1561858.69348  22977042.2294   22977037.3114
        -0.0944
  11084695.01749   8617508.15347  23803544.6504   23803541.7014
     -4480.5004
    228396.51849    174939.38048  21390236.7364   21390233.2404
      -368.8754
  -3264771.22749  -2542906.24547  23838023.2214   23838021.3544
      1928.1564
   -732358.92349   -573209.38247  24254989.3144   24254986.8074
       127.0314
 04  9 17 21 31 15.0020000  0  8G 3G 8G13G19G23G27G28G10
   4233387.58149   3292257.43947  23602395.9394   23602394.2794
     -2444.0164
  -2952341.34449  -2297993.22048  21960946.7834   21960943.6784
       760.2344
   5368365.88649   4174661.23048  21203504.9634   21203500.9714
     -2733.3594
  -2007491.04549  -1561804.77348  22977055.3144   22977050.9594
        -9.2034
  11151936.00349   8669903.65147  23816340.7834   23816338.2364
     -4484.9224
    233954.24949    179270.09248  21391294.7054   21391291.7094
      -372.2664
  -3293661.86649  -2565418.35847  23832525.5184   23832522.6824
      1923.7814
   -734192.82649   -574638.38047  24254640.9244   24254637.7294
       117.3444
 04  9 17 21 31 30.0020000  0  8G 3G 8G13G19G23G27G28G10
   4270114.04949   3320875.45947  23609384.7684   23609382.6504
     -2453.0004
  -2963725.25649  -2306863.79548  21958780.4324   21958777.3814
       757.3914
   5409424.28049   4206654.77148  21211318.3384   21211314.3304
     -2741.2504
  -2007291.31649  -1561649.13148  22977093.6044   22977088.7684
       -17.5784
  11219234.81449   8722344.21347  23829146.5884   23829144.0574
     -4488.5314
    239556.45349    183635.44648  21392360.7054   21392357.2564
      -374.9064
  -3322492.86849  -2587884.00947  23827039.0414   23827036.6154
      1920.1884
   -735887.34549   -575958.79247  24254318.4084   24254315.3224
       108.4064
 04  9 17 21 31 45.0020000  0  8G 3G 8G13G19G23G27G28G10
   4306978.32849   3349600.87447  23616399.9084   23616397.6464
     -2462.0784
  -2975062.39349  -2315697.91248  21956623.1434   21956620.1974
       754.3754
   5450604.38049   4238743.16448  21219154.4474   21219150.4164
     -2749.3124
  -2006961.75749  -1561392.30748  22977156.1664   22977151.4004
       -26.1874
  11286590.29449   8774828.91547  23841964.7994   23841961.4084
     -4492.1724
    245202.12749    188034.67348  21393434.9004   21393431.4864
      -377.7344
  -3351265.06349  -2610303.80847  23821564.1824   23821561.3734
      1916.3754
   -737443.22649   -577171.17047  24254021.6974   24254019.5294
        99.2504
 04  9 17 21 32  0.0020000  0  8G 3G 8G13G19G23G27G28G10
   4343981.40449   3378434.41647  23623441.1434   23623438.9554
     -2471.7504
  -2986351.55749  -2324494.66648  21954475.0184   21954471.9004
       750.7194
   5491907.28349   4270927.23048  21227014.2914   21227009.9004
     -2757.8754
  -2006500.96849  -1561033.23848  22977243.9004   22977239.9434
       -35.3594
  11354003.37849   8827358.53547  23854792.6824   23854789.3734
     -4496.4534
    250892.53249    192468.75548  21394517.7834   21394514.2484
      -381.1414
  -3379977.15849  -2632676.81647  23816100.5574   23816097.8144
      1911.8594
   -738859.26949   -578274.56647  24253752.3384   24253750.0614
        89.4224
 04  9 17 21 32 15.0020000  0  8G 3G 8G13G19G23G27G28G10
   4381124.55949   3407377.11647  23630508.9864   23630507.0844
     -2480.7664
  -2997591.29549  -2333252.88348  21952335.9864   21952333.1664
       747.7344
   5533334.23249   4303207.95948  21234897.4004   21234893.8224
     -2765.8124
  -2005907.33149  -1560570.64848  22977356.7834   22977352.2834
       -43.8914
  11421475.33149   8879934.02247  23867632.0644   23867629.6434
     -4499.9694
    256629.17849    196938.88148  21395609.6584   21395605.9204
      -383.8444
  -3408627.71749  -2655001.85947  23810647.7134   23810645.5644
      1908.0634
   -740133.90649   -579267.78547  24253509.9554   24253507.3304
        80.3754
 04  9 17 21 32 30.0020000  0  8G 3G 8G13G19G23G27G28G10
   4418404.91049   3436426.73447  23637602.9554   23637601.8654
     -2490.1094
  -3008784.30549  -2341974.70448  21950205.6434   21950202.8614
       744.4694
   5574882.41449   4335583.15448  21242803.8144   21242799.7874
     -2774.1724
  -2005183.33549  -1560006.47948  22977494.2134   22977489.9514
       -52.7974
  11489003.07449   8932552.96147  23880482.5494   23880479.7954
     -4503.8444
    262409.33549    201442.89248  21396709.1114   21396705.6974
      -387.0004
  -3437219.21849  -2677280.88247  23805206.9944   23805205.3464
      1904.0164
   -741269.69149   -580152.81147  24253294.3464   24253290.9164
        70.8284
 04  9 17 21 32 45.0020000  0  8G 3G 8G13G19G23G27G28G10
   4455822.46349   3465583.24047  23644723.5804   23644721.6784
     -2499.2194
  -3019930.29949  -2350659.88148  21948085.2134   21948082.0964
       741.3594
   5616551.98449   4368052.95548  21250733.0494   21250729.2484
     -2782.1564
  -2004328.69349  -1559340.51148  22977657.0104   22977652.7874
       -61.4694
  11556586.75949   8985215.49747  23893343.1434   23893340.3614
     -4507.5624
    268233.24549    205981.00248  21397817.1974   21397814.0644
      -389.8284
  -3465751.23149  -2699513.54247  23799777.5024   23799775.5494
      1900.0004
   -742266.41349   -580929.47547  24253103.9324   24253101.7444
        61.7034
 04  9 17 21 33  0.0020000  0  8G 3G 8G13G19G23G27G28G10
   4493379.03749   3494848.10647  23651870.7604   23651868.8304
     -2508.7034
  -3031027.10249  -2359306.73548  21945973.6114   21945970.6784
       737.9224
   5658344.84349   4400618.80348  21258686.3074   21258681.9864
     -2790.4694
  -2003341.19249  -1558571.01348  22977844.6744   22977840.8694
       -70.4224
  11624227.97349   9037922.89247  23906215.4084   23906211.8184
     -4511.4534
    274102.91449    210554.78148  21398934.4474   21398930.7604
      -393.0624
  -3494221.71649  -2721698.26247  23794360.1974   23794357.0574
      1895.7194
   -743122.05949   -581596.21447  24252940.4394   24252938.5104
        52.1254
 04  9 17 21 33 15.0020000  0  8G 3G 8G13G19G23G27G28G10
   4531074.90849   3524221.50747  23659043.7364   23659041.9474
     -2517.7974
  -3042074.23349  -2367914.88548  21943871.1434   21943868.2874
       734.7664
   5700261.37449   4433281.03248  21266662.4244   21266658.8074
     -2798.6414
  -2002220.06149  -1557697.39348  22978058.2054   22978053.3344
       -79.2664
  11691927.10149   9090675.37047  23919097.9244   23919094.3344
     -4515.3284
    280018.99149    215164.70848  21400060.1824   21400056.9044
      -396.0944
  -3522630.07049  -2743834.59847  23788953.8224   23788951.1194
      1891.7344
   -743836.05449   -582152.54147  24252805.3614   24252802.7604
        42.7504
 04  9 17 21 33 30.0020000  0  8G 3G 8G13G19G23G27G28G10
   4568906.71649   3553700.82147  23666243.2054   23666241.5724
     -2526.8914
  -3053075.14449  -2376487.01748  21941777.6894   21941774.7604
       731.6564
   5742298.24549   4466037.02448  21274662.0804   21274657.7914
     -2806.6874
  -2000968.51149  -1556722.14148  22978296.4164   22978291.9204
       -88.0164
  11759680.55049   9143470.20847  23931991.4554   23931987.6624
     -4518.9374
    285978.10849    219808.17748  21401194.3544   21401190.9824
      -398.8754
  -3550979.35649  -2765924.88647  23783559.0184   23783556.7754
      1887.7664
   -744411.50449   -582600.95647  24252695.3144   24252693.0214
        33.5784
 04  9 17 21 33 45.0020000  0  8G 3G 8G13G19G23G27G28G10
   4606876.52249   3583287.67747  23673468.5104   23673466.6114
     -2536.1414
  -3064027.53049  -2385021.32748  21939693.4474   21939690.4244
       728.3134
   5784457.56249   4498888.42948  21282684.5334   21282680.8964
     -2814.9224
  -1999584.06249  -1555643.33948  22978560.0964   22978555.4394
       -96.9534
  11827490.34049   9196308.93047  23944894.5184   23944891.7214
     -4522.7344
    291982.55949    224486.98048  21402336.7364   21402333.4004
      -401.9844
  -3579267.19749  -2787967.28447  23778176.2134   23778174.2174
      1883.5634
   -744846.03749   -582939.57647  24252612.8224   24252610.2364
        24.0784
 04  9 17 21 34  0.0020000  0  8G 3G 8G13G19G23G27G28G10
   4644984.10249   3612981.88547  23680720.7684   23680718.2914
     -2544.7814
  -3074931.07949  -2393517.59748  21937618.8144   21937615.6004
       725.4844
   5826739.36149   4531835.28548  21290730.4794   21290726.8614
     -2822.6564
  -1998066.45149  -1554460.77448  22978848.4474   22978843.9674
      -105.4374
  11895356.28149   9249191.40347  23957809.7364   23957806.0104
     -4526.1094
    298032.60549    229201.30248  21403487.9864   21403484.4904
      -404.6414
  -3607493.37249  -2809961.64347  23772804.8934   23772802.6664
      1879.8444
   -745139.43549   -583168.16947  24252557.3934   24252554.9674
        15.0004
 04  9 17 21 34 15.0020000  0  8G 3G 8G13G19G23G27G28G10
   4683228.35449   3642782.58547  23687997.5644   23687995.6744
     -2554.1874
  -3085787.01749  -2401976.75648  21935553.0024   21935549.8654
       722.0634
   5869142.32249   4564876.53848  21298799.9714   21298795.7794
     -2830.9224
  -1996416.61749  -1553175.16648  22979162.5964   22979157.8814
      -114.4064
  11963277.11349   9302116.65847  23970733.6894   23970730.5884
     -4529.8914
    304127.15849    233950.30248  21404647.8464   21404644.4474
      -407.7814
  -3635658.80349  -2831908.66847  23767444.9244   23767442.5374
      1875.6724
   -745292.65249   -583287.57847  24252527.5334   24252526.3854
         5.4844
 04  9 17 21 34 30.0020000  0  8G 3G 8G13G19G23G27G28G10
   4721610.08649   3672690.42647  23695301.7604   23695299.6044
     -2563.3124
  -3096594.17249  -2410397.90848  21933496.2994   21933493.3774
       718.8444
   5911667.62849   4598013.13048  21306891.9554   21306888.1544
     -2839.0784
  -1994633.13749  -1551785.42348  22979501.8144   22979498.2364
      -123.2974
  12031253.71949   9355085.36847  23983670.3774   23983667.1114
     -4533.5624
    310267.27949    238734.82048  21405816.1194   21405812.8614
      -410.8914
  -3663762.16949  -2853807.33347  23762097.4634   23762094.5844
      1871.5634
   -745304.50849   -583296.80447  24252525.6114   24252523.4394
        -3.8754
 04  9 17 21 34 45.0020000  0  8G 3G 8G13G19G23G27G28G10
   4760125.58749   3702702.49347  23702631.6044   23702629.1314
     -2572.3444
  -3107356.03049  -2418783.75748  21931448.4554   21931445.8224
       715.8754
   5954311.38549   4631242.02348  21315006.7914   21315002.6704
     -2846.9844
  -1992719.51149  -1550294.27448  22979865.6584   22979861.9244
      -132.0784
  12099282.13149   9408094.45747  23996616.0024   23996612.4084
     -4537.0784
    316449.51549    243552.14448  21406992.9794   21406989.4554
      -413.6094
  -3691807.10449  -2875660.47047  23756760.4084   23756758.0414
      1867.5004
   -745178.68649   -583198.74047  24252549.7524   24252547.3814
       -13.0474
 04  9 17 21 35  0.0020000  0  8G 3G 8G13G19G23G27G28G10
   4798775.66149   3732819.43547  23709986.1354   23709983.4084
     -2580.8914
  -3118071.20649  -2427133.23548  21929408.8464   21929406.2644
       713.0784
   5997074.71849   4664564.09748  21323144.6744   21323140.9904
     -2854.5474
  -1990674.40949  -1548700.67348  22980255.4394   22980250.9554
      -140.3914
  12167363.39249   9461144.72747  24009570.8144   24009567.7604
     -4540.2504
    322674.95249    248403.14048  21408177.2604   21408173.9124
      -416.2194
  -3719792.27949  -2897467.05247  23751434.8304   23751432.4364
      1863.9224
   -744913.88249   -582992.38347  24252600.0644   24252597.0644
       -21.9534
 04  9 17 21 35 15.0020000  0  8G 3G 8G13G19G23G27G28G10
   4837559.25849   3763040.39047  23717366.1744   23717363.8934
     -2589.8284
  -3128740.85349  -2435447.24348  21927378.9944   21927375.7484
       710.0634
   6039956.43949   4697978.41448  21331304.6664   21331300.7214
     -2862.5004
  -1988498.70649  -1547005.30148  22980669.1664   22980664.8894
      -149.1724
  12235496.07549   9514235.05747  24022536.3614   24022532.7914
     -4543.5944
    328942.65949    253287.07148  21409370.0724   21409366.3384
      -418.9694
  -3747718.67449  -2919227.81647  23746120.6504   23746117.9674
      1860.0784
   -744511.07049   -582678.52247  24252676.4474   24252674.4554
       -31.2344
 04  9 17 21 35 30.0020000  0  8G 3G 8G13G19G23G27G28G10
   4876475.33249   3793364.59647  23724770.8934   23724769.2054
     -2598.7814
  -3139365.81149  -2443726.42548  21925356.8774   21925353.9904
       706.9224
   6082955.49049   4731484.16448  21339487.0494   21339483.2014
     -2870.4374
  -1986193.11349  -1545208.70748  22981107.8544   22981103.4394
      -157.9224
  12303679.19449   9567364.66347  24035510.6824   24035507.9364
     -4547.1564
    335251.78749    258203.27548  21410570.4474   21410567.3614
      -421.9224
  -3775586.87849  -2940943.21547  23740817.9244   23740815.1864
      1856.0314
   -743971.03449   -582257.68947  24252778.9864   24252777.5414
       -40.5004
 04  9 17 21 35 45.0020000  0  8G 3G 8G13G19G23G27G28G10
   4915528.42349   3823795.56847  23732202.6274   23732200.9634
     -2608.1094
  -3149941.39749  -2451967.13748  21923344.8144   21923341.5764
       703.3444
   6126076.71749   4765085.11248  21347692.7214   21347689.1274
     -2878.8444
  -1983752.72149  -1543307.09048  22981571.9794   22981567.7444
      -167.2814
  12371917.23449   9620537.10247  24048495.7834   24048492.8574
     -4551.1254
    341607.17449    263155.52848  21411780.0254   21411776.5214
      -425.3444
  -3803392.06249  -2962609.55147  23735526.1114   23735523.7134
      1851.5004
   -743288.78249   -581726.06047  24252909.1744   24252907.1864
       -50.3284
 04  9 17 21 36  0.0020000  0  8G 3G 8G13G19G23G27G28G10
   4954719.84149   3854334.32447  23739661.6194   23739658.9984
     -2617.1414
  -3160465.94749  -2460168.07348  21921341.8854   21921339.1044
       700.1564
   6169321.53949   4798782.36448  21355921.8614   21355917.7174
     -2886.8124
  -1981175.65949  -1541298.97648  22982063.0104   22982058.4714
      -176.1724
  12440211.50149   9673753.31447  24061491.8304   24061489.2644
     -4554.4844
    348010.31549    268144.98248  21412998.6664   21412994.7484
      -428.1874
  -3831132.46649  -2984225.39547  23730247.2834   23730244.6394
      1847.4844
   -742462.76349   -581082.41047  24253066.2994   24253064.2324
       -59.5784
 04  9 17 21 36 15.0020000  0  8G 3G 8G13G19G23G27G28G10
   4994044.56149   3884976.94547  23747144.3144   23747142.4394
     -2625.8754
  -3170944.31749  -2468333.03048  21919347.7134   21919345.0574
       697.2034
   6212684.85349   4832571.94148  21364173.8384   21364169.8894
     -2894.7194
  -1978466.80749  -1539188.16948  22982578.1974   22982573.9124
      -184.9224
  12508556.93449   9727009.40347  24074497.2214   24074494.7954
     -4557.8754
    354456.53949    273168.01648  21414225.0334   21414222.3144
      -431.0624
  -3858812.92249  -3005794.52647  23724979.6974   23724977.3934
      1843.5004
   -741497.67449   -580330.38847  24253249.2684   24253247.6154
       -68.8444
